| time (UTC) | temp F | wind direction | speed MPH | gust MPH | rain 1hr in | rain 24hr in | rain mn in | humidity % | barometer mb |
| 20260506230204 | 45 | 11 | 0.0 | 4.0 | 0.00 | 0.19 | 0.00 | 99 | 1008.8 |
| 20260506230105 | 45 | 10 | 1.0 | 4.0 | 0.00 | 0.19 | 0.00 | 99 | 1008.8 |
| 20260506225905 | 45 | 2 | 1.0 | 4.0 | 0.00 | 0.19 | 0.00 | 99 | 1008.7 |
| 20260506225808 | 45 | 1 | 1.0 | 4.0 | 0.00 | 0.19 | 0.00 | 99 | 1008.7 |
| 20260506225705 | 45 | 1 | 1.0 | 4.0 | 0.00 | 0.19 | 0.00 | 99 | 1008.7 |
| 20260506225605 | 45 | 1 | 0.0 | 2.0 | 0.00 | 0.19 | 0.00 | 99 | 1008.8 |
| 20260506225505 | 45 | 1 | 1.0 | 2.0 | 0.00 | 0.19 | 0.00 | 99 | 1008.9 |
| 20260506225405 | 45 | 1 | 0.0 | 2.0 | 0.00 | 0.19 | 0.00 | 99 | 1008.8 |
| 20260506225306 | 45 | 1 | 0.0 | 2.0 | 0.00 | 0.19 | 0.00 | 99 | 1008.8 |
| 20260506225205 | 45 | 1 | 0.0 | 2.0 | 0.00 | 0.19 | 0.00 | 99 | 1008.7 |
| 20260506225105 | 45 | 1 | 0.0 | 2.0 | 0.00 | 0.19 | 0.00 | 99 | 1008.7 |
| 20260506225005 | 46 | 1 | 0.0 | 2.0 | 0.00 | 0.19 | 0.00 | 99 | 1008.8 |
| 20260506224904 | 46 | 1 | 0.0 | 2.0 | 0.00 | 0.19 | 0.00 | 99 | 1008.8 |
| 20260506224808 | 46 | 1 | 0.0 | 2.0 | 0.00 | 0.19 | 0.00 | 99 | 1008.8 |
| 20260506224705 | 46 | 1 | 0.0 | 2.0 | 0.00 | 0.19 | 0.00 | 99 | 1008.9 |
| 20260506224604 | 46 | 1 | 0.0 | 2.0 | 0.00 | 0.19 | 0.00 | 99 | 1008.8 |
| 20260506224405 | 46 | 1 | 0.0 | 2.0 | 0.00 | 0.19 | 0.00 | 99 | 1008.7 |
| 20260506224304 | 46 | 1 | 0.0 | 2.0 | 0.00 | 0.19 | 0.00 | 99 | 1008.8 |
| 20260506224205 | 46 | 1 | 0.0 | 2.0 | 0.00 | 0.19 | 0.00 | 99 | 1008.8 |
| 20260506224105 | 46 | 1 | 0.0 | 2.0 | 0.00 | 0.19 | 0.00 | 99 | 1008.9 |
| 20260506224004 | 46 | 1 | 0.0 | 2.0 | 0.00 | 0.19 | 0.00 | 99 | 1008.8 |
| 20260506223908 | 46 | 1 | 0.0 | 2.0 | 0.00 | 0.19 | 0.00 | 99 | 1008.8 |
| 20260506223804 | 46 | 1 | 0.0 | 2.0 | 0.00 | 0.19 | 0.00 | 99 | 1008.9 |
| 20260506223704 | 46 | 1 | 0.0 | 1.0 | 0.00 | 0.19 | 0.00 | 99 | 1008.8 |
| 20260506223505 | 46 | 1 | 0.0 | 1.0 | 0.00 | 0.19 | 0.00 | 99 | 1008.7 |
| 20260506223404 | 46 | 1 | 0.0 | 1.0 | 0.00 | 0.19 | 0.00 | 99 | 1008.7 |
| 20260506223205 | 46 | 1 | 0.0 | 1.0 | 0.00 | 0.19 | 0.00 | 99 | 1008.8 |
| 20260506223104 | 46 | 1 | 0.0 | 1.0 | 0.00 | 0.19 | 0.00 | 99 | 1008.8 |
| 20260506222905 | 46 | 1 | 0.0 | 1.0 | 0.00 | 0.19 | 0.00 | 99 | 1008.7 |
| 20260506222804 | 46 | 1 | 0.0 | 1.0 | 0.00 | 0.19 | 0.00 | 99 | 1008.8 |
| 20260506222705 | 46 | 0 | 0.0 | 0.0 | 0.00 | 0.19 | 0.00 | 99 | 1008.7 |
| 20260506222504 | 46 | 0 | 0.0 | 0.0 | 0.00 | 0.19 | 0.00 | 99 | 1008.7 |
| 20260506222306 | 46 | 1 | 0.0 | 2.0 | 0.00 | 0.19 | 0.00 | 99 | 1008.7 |
| 20260506222204 | 46 | 1 | 0.0 | 2.0 | 0.00 | 0.19 | 0.00 | 99 | 1008.7 |
| 20260506222105 | 46 | 1 | 0.0 | 3.0 | 0.00 | 0.19 | 0.00 | 99 | 1008.5 |
| 20260506222008 | 46 | 1 | 0.0 | 3.0 | 0.00 | 0.19 | 0.00 | 99 | 1008.6 |
| 20260506221905 | 46 | 11 | 0.0 | 3.0 | 0.00 | 0.19 | 0.00 | 99 | 1008.7 |
| 20260506221805 | 46 | 17 | 0.0 | 3.0 | 0.00 | 0.19 | 0.00 | 99 | 1008.7 |
| 20260506221705 | 46 | 22 | 0.0 | 3.0 | 0.00 | 0.19 | 0.00 | 99 | 1008.6 |
| 20260506221605 | 46 | 27 | 0.0 | 3.0 | 0.00 | 0.19 | 0.00 | 99 | 1008.6 |
| 20260506221505 | 46 | 29 | 0.0 | 3.0 | 0.00 | 0.19 | 0.00 | 99 | 1008.6 |
| 20260506221404 | 46 | 33 | 0.0 | 3.0 | 0.00 | 0.19 | 0.00 | 99 | 1008.5 |
| 20260506221305 | 46 | 34 | 0.0 | 3.0 | 0.00 | 0.19 | 0.00 | 99 | 1008.6 |
| 20260506221205 | 46 | 36 | 0.0 | 3.0 | 0.00 | 0.19 | 0.00 | 99 | 1008.6 |
| 20260506221105 | 46 | 41 | 1.0 | 3.0 | 0.00 | 0.19 | 0.00 | 99 | 1008.5 |
| 20260506221007 | 46 | 46 | 0.0 | 3.0 | 0.00 | 0.19 | 0.00 | 99 | 1008.5 |
| 20260506220904 | 46 | 45 | 0.0 | 3.0 | 0.00 | 0.19 | 0.00 | 99 | 1008.4 |
| 20260506220805 | 46 | 46 | 0.0 | 3.0 | 0.00 | 0.19 | 0.00 | 99 | 1008.6 |
| 20260506220604 | 46 | 56 | 0.0 | 4.0 | 0.00 | 0.19 | 0.00 | 99 | 1008.6 |
| 20260506220505 | 46 | 48 | 2.0 | 4.0 | 0.00 | 0.19 | 0.00 | 99 | 1008.4 |
| 20260506220404 | 46 | 38 | 0.0 | 4.0 | 0.00 | 0.19 | 0.00 | 99 | 1008.5 |
| 20260506220305 | 46 | 30 | 0.0 | 4.0 | 0.00 | 0.19 | 0.00 | 99 | 1008.5 |
| 20260506220204 | 46 | 24 | 0.0 | 4.0 | 0.00 | 0.19 | 0.00 | 99 | 1008.4 |
| 20260506220009 | 46 | 15 | 0.0 | 4.0 | 0.00 | 0.19 | 0.00 | 99 | 1008.4 |
| 20260506215805 | 46 | 12 | 0.0 | 4.0 | 0.00 | 0.19 | 0.19 | 99 | 1008.4 |
| 20260506215705 | 47 | 7 | 2.0 | 4.0 | 0.00 | 0.19 | 0.19 | 99 | 1008.5 |
| 20260506215604 | 47 | 4 | 0.0 | 4.0 | 0.00 | 0.19 | 0.19 | 99 | 1008.4 |
| 20260506215505 | 47 | 8 | 2.0 | 4.0 | 0.00 | 0.19 | 0.19 | 99 | 1008.4 |
| 20260506215404 | 47 | 13 | 1.0 | 4.0 | 0.00 | 0.19 | 0.19 | 99 | 1008.4 |
| 20260506215306 | 47 | 17 | 1.0 | 4.0 | 0.00 | 0.19 | 0.19 | 99 | 1008.3 |
| 20260506215205 | 47 | 30 | 1.0 | 3.0 | 0.00 | 0.19 | 0.19 | 99 | 1008.3 |
| 20260506215104 | 47 | 38 | 1.0 | 3.0 | 0.00 | 0.19 | 0.19 | 99 | 1008.3 |
| 20260506215008 | 47 | 56 | 0.0 | 3.0 | 0.00 | 0.19 | 0.19 | 99 | 1008.3 |
| 20260506214904 | 47 | 59 | 0.0 | 4.0 | 0.00 | 0.19 | 0.19 | 99 | 1008.3 |
| 20260506214805 | 47 | 54 | 0.0 | 4.0 | 0.00 | 0.19 | 0.19 | 99 | 1008.4 |
| 20260506214604 | 47 | 46 | 0.0 | 4.0 | 0.00 | 0.19 | 0.19 | 99 | 1008.3 |
| 20260506214504 | 47 | 46 | 0.0 | 4.0 | 0.00 | 0.19 | 0.19 | 99 | 1008.2 |
| 20260506214405 | 47 | 35 | 0.0 | 4.0 | 0.00 | 0.19 | 0.19 | 99 | 1008.2 |
| 20260506214305 | 47 | 29 | 0.0 | 4.0 | 0.00 | 0.19 | 0.19 | 99 | 1008.3 |
| 20260506214207 | 47 | 21 | 0.0 | 4.0 | 0.00 | 0.19 | 0.19 | 99 | 1008.3 |
| 20260506214004 | 47 | 14 | 1.0 | 4.0 | 0.00 | 0.19 | 0.19 | 99 | 1008.3 |
| 20260506213905 | 47 | 10 | 2.0 | 4.0 | 0.00 | 0.19 | 0.19 | 99 | 1008.3 |
| 20260506213605 | 47 | 7 | 0.0 | 4.0 | 0.00 | 0.19 | 0.19 | 99 | 1008.2 |
| 20260506213504 | 47 | 9 | 0.0 | 4.0 | 0.00 | 0.19 | 0.19 | 99 | 1008.2 |
| 20260506213404 | 47 | 12 | 0.0 | 4.0 | 0.00 | 0.19 | 0.19 | 99 | 1008.2 |
| 20260506213104 | 47 | 14 | 0.0 | 4.0 | 0.00 | 0.19 | 0.19 | 99 | 1008.2 |
| 20260506213005 | 47 | 18 | 2.0 | 4.0 | 0.00 | 0.19 | 0.19 | 99 | 1008.0 |
| 20260506212905 | 47 | 22 | 1.0 | 4.0 | 0.00 | 0.19 | 0.19 | 99 | 1008.2 |
| 20260506212805 | 47 | 21 | 2.0 | 4.0 | 0.00 | 0.19 | 0.19 | 99 | 1008.1 |
| 20260506212604 | 47 | 26 | 1.0 | 5.0 | 0.00 | 0.19 | 0.19 | 99 | 1008.0 |
| 20260506212505 | 47 | 27 | 1.0 | 5.0 | 0.00 | 0.19 | 0.19 | 99 | 1008.1 |
| 20260506212405 | 47 | 24 | 1.0 | 5.0 | 0.00 | 0.19 | 0.19 | 99 | 1008.2 |
| 20260506212306 | 47 | 20 | 1.0 | 5.0 | 0.00 | 0.19 | 0.19 | 99 | 1007.9 |
| 20260506212104 | 47 | 17 | 2.0 | 6.0 | 0.00 | 0.19 | 0.19 | 99 | 1008.1 |
| 20260506212005 | 47 | 16 | 0.0 | 6.0 | 0.00 | 0.19 | 0.19 | 99 | 1008.1 |
| 20260506211805 | 47 | 20 | 1.0 | 6.0 | 0.00 | 0.19 | 0.19 | 99 | 1008.0 |
| 20260506211705 | 47 | 24 | 2.0 | 6.0 | 0.00 | 0.19 | 0.19 | 99 | 1008.1 |
| 20260506211405 | 47 | 24 | 2.0 | 6.0 | 0.00 | 0.19 | 0.19 | 99 | 1008.1 |
| 20260506211304 | 47 | 30 | 2.0 | 6.0 | 0.00 | 0.19 | 0.19 | 99 | 1008.2 |
| 20260506211208 | 47 | 37 | 2.0 | 6.0 | 0.00 | 0.19 | 0.19 | 99 | 1008.2 |
| 20260506211105 | 47 | 45 | 1.0 | 3.0 | 0.00 | 0.19 | 0.19 | 99 | 1008.1 |
| 20260506211005 | 47 | 45 | 0.0 | 3.0 | 0.00 | 0.19 | 0.19 | 99 | 1008.1 |
| 20260506210904 | 47 | 44 | 0.0 | 3.0 | 0.00 | 0.19 | 0.19 | 99 | 1008.1 |
| 20260506210804 | 47 | 38 | 0.0 | 4.0 | 0.00 | 0.19 | 0.19 | 99 | 1008.0 |
| 20260506210705 | 47 | 34 | 0.0 | 4.0 | 0.00 | 0.19 | 0.19 | 99 | 1008.0 |
| 20260506210504 | 47 | 27 | 0.0 | 4.0 | 0.00 | 0.19 | 0.19 | 99 | 1008.0 |
| 20260506210405 | 47 | 24 | 0.0 | 4.0 | 0.00 | 0.19 | 0.19 | 99 | 1008.2 |
| 20260506210307 | 47 | 21 | 0.0 | 4.0 | 0.00 | 0.19 | 0.19 | 99 | 1008.2 |
| 20260506210205 | 47 | 16 | 0.0 | 4.0 | 0.00 | 0.19 | 0.19 | 99 | 1008.1 |
| 20260506210105 | 47 | 11 | 0.0 | 4.0 | 0.00 | 0.19 | 0.19 | 99 | 1008.0 |
| 20260506210004 | 47 | 6 | 1.0 | 4.0 | 0.00 | 0.19 | 0.19 | 99 | 1008.1 |
| 20260506205905 | 47 | 5 | 0.0 | 4.0 | 0.00 | 0.19 | 0.19 | 99 | 1008.2 |
| 20260506205704 | 47 | 17 | 0.0 | 3.0 | 0.00 | 0.19 | 0.19 | 99 | 1008.2 |
| 20260506205605 | 47 | 27 | 0.0 | 4.0 | 0.00 | 0.19 | 0.19 | 99 | 1008.2 |
| 20260506205407 | 47 | 30 | 0.0 | 4.0 | 0.00 | 0.19 | 0.19 | 99 | 1008.2 |
| 20260506205306 | 47 | 32 | 0.0 | 4.0 | 0.00 | 0.19 | 0.19 | 99 | 1008.2 |
| 20260506205204 | 47 | 32 | 0.0 | 4.0 | 0.00 | 0.19 | 0.19 | 99 | 1008.0 |
| 20260506205104 | 47 | 30 | 0.0 | 4.0 | 0.00 | 0.19 | 0.19 | 99 | 1008.0 |
| 20260506205005 | 47 | 32 | 0.0 | 4.0 | 0.00 | 0.19 | 0.19 | 99 | 1008.1 |
| 20260506204905 | 47 | 31 | 1.0 | 4.0 | 0.00 | 0.19 | 0.19 | 99 | 1008.0 |
| 20260506204805 | 47 | 27 | 0.0 | 4.0 | 0.00 | 0.19 | 0.19 | 99 | 1008.0 |
| 20260506204705 | 47 | 29 | 0.0 | 4.0 | 0.00 | 0.19 | 0.19 | 99 | 1008.1 |
| 20260506204605 | 47 | 27 | 2.0 | 4.0 | 0.00 | 0.19 | 0.19 | 99 | 1008.0 |
| 20260506204505 | 48 | 26 | 1.0 | 4.0 | 0.00 | 0.19 | 0.19 | 99 | 1008.0 |
| 20260506204405 | 48 | 15 | 0.0 | 5.0 | 0.00 | 0.19 | 0.19 | 99 | 1008.2 |
| 20260506204308 | 48 | 19 | 0.0 | 5.0 | 0.00 | 0.19 | 0.19 | 99 | 1008.1 |
| 20260506204205 | 48 | 20 | 0.0 | 6.0 | 0.00 | 0.19 | 0.19 | 99 | 1007.9 |
| 20260506204105 | 48 | 23 | 0.0 | 6.0 | 0.00 | 0.19 | 0.19 | 99 | 1008.0 |
| 20260506203905 | 48 | 21 | 0.0 | 6.0 | 0.00 | 0.19 | 0.19 | 99 | 1008.0 |
| 20260506203705 | 48 | 23 | 2.0 | 6.0 | 0.00 | 0.19 | 0.19 | 99 | 1008.1 |
| 20260506203605 | 48 | 19 | 1.0 | 6.0 | 0.00 | 0.19 | 0.19 | 99 | 1007.9 |
| 20260506203504 | 48 | 18 | 1.0 | 6.0 | 0.00 | 0.19 | 0.19 | 99 | 1008.1 |
| 20260506203405 | 48 | 20 | 1.0 | 6.0 | 0.00 | 0.19 | 0.19 | 99 | 1008.0 |
| 20260506203205 | 48 | 12 | 3.0 | 6.0 | 0.00 | 0.19 | 0.19 | 99 | 1008.0 |
| 20260506203104 | 48 | 8 | 1.0 | 4.0 | 0.00 | 0.19 | 0.19 | 99 | 1008.0 |
| 20260506203005 | 48 | 8 | 1.0 | 4.0 | 0.00 | 0.19 | 0.19 | 99 | 1008.2 |
| 20260506202706 | 48 | 1 | 2.0 | 4.0 | 0.00 | 0.19 | 0.19 | 99 | 1008.2 |
| 20260506202605 | 48 | 1 | 2.0 | 4.0 | 0.00 | 0.19 | 0.19 | 99 | 1008.0 |
| 20260506202505 | 48 | 1 | 1.0 | 4.0 | 0.00 | 0.19 | 0.19 | 99 | 1008.2 |
| 20260506202307 | 48 | 1 | 2.0 | 4.0 | 0.00 | 0.19 | 0.19 | 99 | 1008.1 |
| 20260506202205 | 48 | 1 | 2.0 | 4.0 | 0.00 | 0.19 | 0.19 | 99 | 1008.1 |
| 20260506202005 | 48 | 10 | 1.0 | 4.0 | 0.00 | 0.19 | 0.19 | 99 | 1008.1 |
| 20260506201905 | 48 | 14 | 1.0 | 4.0 | 0.00 | 0.19 | 0.19 | 99 | 1008.0 |
| 20260506201805 | 48 | 14 | 1.0 | 4.0 | 0.00 | 0.19 | 0.19 | 99 | 1008.0 |
| 20260506201705 | 48 | 10 | 0.0 | 4.0 | 0.00 | 0.19 | 0.19 | 99 | 1008.0 |
| 20260506201604 | 48 | 10 | 2.0 | 4.0 | 0.00 | 0.19 | 0.19 | 99 | 1008.0 |
| 20260506201405 | 48 | 11 | 0.0 | 4.0 | 0.00 | 0.19 | 0.19 | 99 | 1008.1 |
| 20260506201304 | 48 | 6 | 2.0 | 4.0 | 0.00 | 0.19 | 0.19 | 99 | 1008.1 |
| 20260506201205 | 48 | 6 | 2.0 | 4.0 | 0.00 | 0.19 | 0.19 | 99 | 1008.0 |
| 20260506201104 | 48 | 6 | 2.0 | 4.0 | 0.00 | 0.19 | 0.19 | 99 | 1008.0 |
| 20260506201005 | 48 | 353 | 0.0 | 4.0 | 0.00 | 0.19 | 0.19 | 99 | 1008.1 |
| 20260506200804 | 48 | 342 | 1.0 | 4.0 | 0.00 | 0.19 | 0.19 | 99 | 1008.0 |
| 20260506200705 | 48 | 340 | 1.0 | 3.0 | 0.00 | 0.19 | 0.19 | 99 | 1008.2 |
| 20260506200605 | 48 | 337 | 0.0 | 3.0 | 0.00 | 0.19 | 0.19 | 99 | 1008.1 |
| 20260506200506 | 48 | 334 | 1.0 | 3.0 | 0.00 | 0.19 | 0.19 | 99 | 1008.0 |
| 20260506200304 | 48 | 339 | 0.0 | 3.0 | 0.00 | 0.19 | 0.19 | 99 | 1008.0 |
| 20260506200205 | 48 | 340 | 2.0 | 3.0 | 0.00 | 0.19 | 0.19 | 99 | 1008.0 |
| 20260506200104 | 48 | 337 | 1.0 | 2.0 | 0.00 | 0.19 | 0.19 | 99 | 1008.0 |
| 20260506200005 | 48 | 337 | 0.0 | 2.0 | 0.00 | 0.19 | 0.19 | 99 | 1008.0 |
| 20260506195905 | 48 | 338 | 0.0 | 2.0 | 0.00 | 0.19 | 0.19 | 99 | 1008.0 |
| 20260506195804 | 48 | 343 | 0.0 | 2.0 | 0.00 | 0.19 | 0.19 | 99 | 1007.9 |
| 20260506195705 | 48 | 347 | 1.0 | 2.0 | 0.00 | 0.19 | 0.19 | 99 | 1008.0 |
| 20260506195605 | 48 | 1 | 0.0 | 2.0 | 0.00 | 0.19 | 0.19 | 99 | 1007.8 |
| 20260506195507 | 48 | 15 | 0.0 | 2.0 | 0.00 | 0.19 | 0.19 | 99 | 1008.0 |
| 20260506195405 | 48 | 18 | 0.0 | 2.0 | 0.00 | 0.19 | 0.19 | 99 | 1007.8 |
| 20260506195306 | 48 | 22 | 0.0 | 3.0 | 0.00 | 0.19 | 0.19 | 99 | 1007.9 |
| 20260506195204 | 48 | 21 | 0.0 | 3.0 | 0.00 | 0.19 | 0.19 | 99 | 1007.9 |
| 20260506195105 | 48 | 19 | 0.0 | 3.0 | 0.00 | 0.19 | 0.19 | 99 | 1008.1 |
| 20260506195005 | 48 | 27 | 0.0 | 4.0 | 0.00 | 0.19 | 0.19 | 99 | 1007.9 |
| 20260506194904 | 48 | 31 | 0.0 | 4.0 | 0.00 | 0.19 | 0.19 | 99 | 1007.9 |
| 20260506194805 | 48 | 27 | 0.0 | 4.0 | 0.00 | 0.19 | 0.19 | 99 | 1007.9 |
| 20260506194604 | 48 | 27 | 0.0 | 4.0 | 0.00 | 0.19 | 0.19 | 99 | 1007.8 |
| 20260506194304 | 48 | 24 | 1.0 | 4.0 | 0.00 | 0.19 | 0.19 | 99 | 1007.8 |
| 20260506194105 | 48 | 34 | 1.0 | 6.0 | 0.00 | 0.19 | 0.19 | 99 | 1007.6 |
| 20260506194004 | 48 | 33 | 1.0 | 6.0 | 0.00 | 0.19 | 0.19 | 99 | 1007.8 |
| 20260506193906 | 48 | 33 | 1.0 | 6.0 | 0.00 | 0.19 | 0.19 | 99 | 1007.7 |
| 20260506193705 | 48 | 33 | 0.0 | 6.0 | 0.01 | 0.19 | 0.19 | 99 | 1007.6 |
| 20260506193608 | 48 | 30 | 1.0 | 6.0 | 0.01 | 0.19 | 0.19 | 99 | 1007.6 |
| 20260506193405 | 48 | 33 | 2.0 | 6.0 | 0.01 | 0.19 | 0.19 | 99 | 1007.7 |
| 20260506193305 | 48 | 31 | 2.0 | 6.0 | 0.01 | 0.19 | 0.19 | 99 | 1007.6 |
| 20260506193205 | 48 | 22 | 3.0 | 6.0 | 0.01 | 0.19 | 0.19 | 99 | 1007.6 |
| 20260506193105 | 48 | 16 | 1.0 | 7.0 | 0.01 | 0.19 | 0.19 | 99 | 1007.6 |
| 20260506193005 | 48 | 15 | 2.0 | 7.0 | 0.01 | 0.19 | 0.19 | 99 | 1007.7 |
| 20260506192905 | 48 | 16 | 1.0 | 7.0 | 0.01 | 0.19 | 0.19 | 99 | 1007.7 |
| 20260506192805 | 48 | 18 | 1.0 | 7.0 | 0.01 | 0.19 | 0.19 | 99 | 1007.5 |
| 20260506192705 | 48 | 23 | 2.0 | 7.0 | 0.01 | 0.19 | 0.19 | 99 | 1007.5 |
| 20260506192607 | 48 | 25 | 1.0 | 7.0 | 0.01 | 0.19 | 0.19 | 99 | 1007.6 |
| 20260506192505 | 48 | 24 | 0.0 | 7.0 | 0.01 | 0.19 | 0.19 | 99 | 1007.5 |
| 20260506192405 | 48 | 30 | 2.0 | 7.0 | 0.01 | 0.19 | 0.19 | 99 | 1007.5 |
| 20260506192306 | 48 | 32 | 2.0 | 7.0 | 0.01 | 0.19 | 0.19 | 99 | 1007.6 |
| 20260506192205 | 48 | 34 | 1.0 | 7.0 | 0.01 | 0.19 | 0.19 | 99 | 1007.5 |
| 20260506192005 | 48 | 38 | 2.0 | 4.0 | 0.01 | 0.19 | 0.19 | 99 | 1007.6 |
| 20260506191905 | 48 | 31 | 2.0 | 5.0 | 0.01 | 0.19 | 0.19 | 99 | 1007.4 |
| 20260506191805 | 48 | 32 | 1.0 | 5.0 | 0.01 | 0.19 | 0.19 | 99 | 1007.5 |
| 20260506191705 | 48 | 25 | 1.0 | 5.0 | 0.01 | 0.19 | 0.19 | 99 | 1007.4 |
| 20260506191505 | 49 | 28 | 1.0 | 5.0 | 0.01 | 0.19 | 0.19 | 99 | 1007.4 |
| 20260506191405 | 49 | 21 | 2.0 | 5.0 | 0.01 | 0.19 | 0.19 | 99 | 1007.5 |
| 20260506191304 | 49 | 16 | 0.0 | 5.0 | 0.01 | 0.19 | 0.19 | 99 | 1007.4 |
| 20260506191205 | 49 | 13 | 1.0 | 5.0 | 0.02 | 0.19 | 0.19 | 99 | 1007.5 |
| 20260506191005 | 49 | 10 | 3.0 | 6.0 | 0.02 | 0.19 | 0.19 | 99 | 1007.4 |
| 20260506190904 | 49 | 11 | 2.0 | 6.0 | 0.02 | 0.19 | 0.19 | 99 | 1007.4 |
| 20260506190805 | 49 | 7 | 2.0 | 6.0 | 0.02 | 0.19 | 0.19 | 99 | 1007.4 |
| 20260506190605 | 49 | 15 | 1.0 | 6.0 | 0.02 | 0.19 | 0.19 | 99 | 1007.4 |
| 20260506190505 | 49 | 11 | 2.0 | 6.0 | 0.02 | 0.19 | 0.19 | 99 | 1007.4 |
| 20260506190405 | 49 | 14 | 2.0 | 6.0 | 0.02 | 0.19 | 0.19 | 99 | 1007.2 |
| 20260506190304 | 49 | 14 | 2.0 | 6.0 | 0.02 | 0.19 | 0.19 | 99 | 1007.4 |
| 20260506190205 | 49 | 17 | 3.0 | 6.0 | 0.02 | 0.19 | 0.19 | 99 | 1007.5 |
| 20260506190104 | 49 | 19 | 2.0 | 6.0 | 0.02 | 0.19 | 0.19 | 99 | 1007.4 |
| 20260506190006 | 49 | 19 | 3.0 | 6.0 | 0.02 | 0.19 | 0.19 | 99 | 1007.5 |
| 20260506185904 | 49 | 20 | 1.0 | 4.0 | 0.02 | 0.19 | 0.19 | 99 | 1007.4 |
| 20260506185707 | 49 | 15 | 2.0 | 4.0 | 0.02 | 0.19 | 0.19 | 99 | 1007.3 |
| 20260506185605 | 49 | 15 | 2.0 | 5.0 | 0.02 | 0.19 | 0.19 | 99 | 1007.3 |
| 20260506185505 | 49 | 19 | 2.0 | 5.0 | 0.02 | 0.19 | 0.19 | 99 | 1007.4 |
| 20260506185405 | 49 | 17 | 2.0 | 5.0 | 0.02 | 0.19 | 0.19 | 99 | 1007.2 |
| 20260506185306 | 49 | 15 | 2.0 | 5.0 | 0.02 | 0.19 | 0.19 | 99 | 1007.3 |
| 20260506185105 | 50 | 17 | 1.0 | 5.0 | 0.02 | 0.19 | 0.19 | 99 | 1007.2 |
| 20260506185005 | 50 | 17 | 2.0 | 5.0 | 0.02 | 0.19 | 0.19 | 99 | 1007.1 |
| 20260506184905 | 50 | 17 | 1.0 | 5.0 | 0.02 | 0.19 | 0.19 | 99 | 1006.9 |
| 20260506184505 | 50 | 13 | 1.0 | 5.0 | 0.04 | 0.19 | 0.19 | 99 | 1007.1 |
| 20260506184405 | 50 | 11 | 2.0 | 5.0 | 0.04 | 0.19 | 0.19 | 99 | 1007.1 |
| 20260506184305 | 50 | 12 | 2.0 | 5.0 | 0.04 | 0.19 | 0.19 | 99 | 1007.1 |
| 20260506184105 | 50 | 8 | 2.0 | 5.0 | 0.04 | 0.19 | 0.19 | 99 | 1007.1 |
| 20260506184005 | 50 | 9 | 0.0 | 4.0 | 0.04 | 0.19 | 0.19 | 99 | 1007.1 |
| 20260506183905 | 50 | 19 | 1.0 | 4.0 | 0.04 | 0.19 | 0.19 | 99 | 1007.0 |
| 20260506183805 | 50 | 14 | 0.0 | 2.0 | 0.02 | 0.18 | 0.18 | 99 | 1007.0 |
| 20260506183705 | 50 | 15 | 0.0 | 2.0 | 0.02 | 0.18 | 0.18 | 99 | 1007.0 |
| 20260506183604 | 50 | 18 | 0.0 | 2.0 | 0.02 | 0.18 | 0.18 | 99 | 1007.1 |
| 20260506183505 | 50 | 18 | 0.0 | 2.0 | 0.02 | 0.18 | 0.18 | 99 | 1007.2 |
| 20260506183404 | 50 | 20 | 0.0 | 2.0 | 0.02 | 0.18 | 0.18 | 99 | 1007.2 |
| 20260506183305 | 50 | 34 | 0.0 | 4.0 | 0.02 | 0.18 | 0.18 | 99 | 1007.0 |
| 20260506183205 | 50 | 40 | 0.0 | 4.0 | 0.02 | 0.18 | 0.18 | 99 | 1007.0 |
| 20260506183105 | 50 | 55 | 0.0 | 4.0 | 0.02 | 0.18 | 0.18 | 99 | 1007.0 |
| 20260506183006 | 50 | 67 | 0.0 | 4.0 | 0.02 | 0.18 | 0.18 | 99 | 1007.1 |
| 20260506182905 | 50 | 62 | 0.0 | 4.0 | 0.02 | 0.18 | 0.18 | 99 | 1006.9 |
| 20260506182808 | 50 | 56 | 0.0 | 4.0 | 0.02 | 0.18 | 0.18 | 99 | 1007.1 |
| 20260506182705 | 50 | 54 | 0.0 | 4.0 | 0.02 | 0.18 | 0.18 | 99 | 1006.9 |
| 20260506182604 | 50 | 51 | 0.0 | 4.0 | 0.02 | 0.18 | 0.18 | 99 | 1006.9 |
| 20260506182505 | 50 | 48 | 1.0 | 4.0 | 0.02 | 0.18 | 0.18 | 99 | 1007.1 |
| 20260506182405 | 50 | 48 | 1.0 | 4.0 | 0.02 | 0.18 | 0.18 | 99 | 1006.9 |
| 20260506182306 | 50 | 37 | 1.0 | 4.0 | 0.02 | 0.18 | 0.18 | 99 | 1006.9 |
| 20260506182205 | 50 | 36 | 1.0 | 3.0 | 0.02 | 0.18 | 0.18 | 99 | 1006.9 |
| 20260506182104 | 50 | 28 | 0.0 | 4.0 | 0.02 | 0.18 | 0.18 | 99 | 1006.7 |
| 20260506182005 | 50 | 27 | 0.0 | 5.0 | 0.02 | 0.18 | 0.18 | 99 | 1006.9 |
| 20260506181905 | 50 | 30 | 1.0 | 5.0 | 0.02 | 0.18 | 0.18 | 99 | 1006.9 |
| 20260506181605 | 50 | 23 | 1.0 | 5.0 | 0.02 | 0.18 | 0.18 | 99 | 1006.7 |
| 20260506181405 | 50 | 34 | 2.0 | 6.0 | 0.02 | 0.18 | 0.18 | 99 | 1006.7 |
| 20260506181305 | 50 | 41 | 2.0 | 6.0 | 0.02 | 0.18 | 0.18 | 99 | 1006.9 |
| 20260506181205 | 50 | 45 | 1.0 | 6.0 | 0.01 | 0.17 | 0.17 | 99 | 1006.7 |
| 20260506181105 | 50 | 60 | 2.0 | 6.0 | 0.01 | 0.17 | 0.17 | 99 | 1006.7 |
| 20260506180704 | 50 | 61 | 1.0 | 6.0 | 0.01 | 0.17 | 0.17 | 99 | 1006.6 |
| 20260506180605 | 50 | 59 | 2.0 | 6.0 | 0.01 | 0.17 | 0.17 | 99 | 1006.5 |
| 20260506180505 | 50 | 60 | 1.0 | 6.0 | 0.01 | 0.17 | 0.17 | 99 | 1006.6 |
| 20260506180405 | 50 | 50 | 2.0 | 6.0 | 0.01 | 0.17 | 0.17 | 99 | 1006.6 |
| 20260506180304 | 50 | 51 | 0.0 | 6.0 | 0.01 | 0.17 | 0.17 | 99 | 1006.5 |
| 20260506180205 | 50 | 46 | 2.0 | 6.0 | 0.01 | 0.17 | 0.17 | 99 | 1006.6 |
| 20260506180104 | 50 | 37 | 0.0 | 7.0 | 0.01 | 0.17 | 0.17 | 99 | 1006.6 |
| 20260506175908 | 50 | 51 | 1.0 | 7.0 | 0.01 | 0.17 | 0.17 | 99 | 1006.6 |
| 20260506175704 | 50 | 64 | 1.0 | 7.0 | 0.01 | 0.17 | 0.17 | 99 | 1006.5 |
| 20260506175605 | 50 | 71 | 0.0 | 7.0 | 0.01 | 0.17 | 0.17 | 99 | 1006.5 |
| 20260506175505 | 50 | 65 | 1.0 | 7.0 | 0.01 | 0.17 | 0.17 | 99 | 1006.6 |
| 20260506175404 | 50 | 70 | 0.0 | 7.0 | 0.02 | 0.17 | 0.17 | 99 | 1006.5 |
| 20260506175306 | 50 | 67 | 0.0 | 7.0 | 0.02 | 0.17 | 0.17 | 99 | 1006.6 |
| 20260506175205 | 50 | 71 | 1.0 | 7.0 | 0.02 | 0.17 | 0.17 | 99 | 1006.6 |
| 20260506175105 | 50 | 64 | 2.0 | 7.0 | 0.02 | 0.17 | 0.17 | 99 | 1006.6 |
| 20260506175005 | 50 | 50 | 0.0 | 5.0 | 0.02 | 0.17 | 0.17 | 99 | 1006.6 |
| 20260506174907 | 50 | 47 | 1.0 | 5.0 | 0.01 | 0.15 | 0.15 | 99 | 1006.5 |
| 20260506174704 | 50 | 54 | 1.0 | 5.0 | 0.01 | 0.15 | 0.15 | 99 | 1006.4 |
| 20260506174605 | 50 | 49 | 2.0 | 5.0 | 0.01 | 0.15 | 0.15 | 99 | 1006.4 |
| 20260506174505 | 50 | 57 | 2.0 | 5.0 | 0.01 | 0.15 | 0.15 | 99 | 1006.4 |
| 20260506174404 | 50 | 37 | 2.0 | 5.0 | 0.01 | 0.15 | 0.15 | 99 | 1006.4 |
| 20260506174305 | 50 | 37 | 0.0 | 5.0 | 0.01 | 0.15 | 0.15 | 99 | 1006.4 |
| 20260506174104 | 50 | 37 | 2.0 | 5.0 | 0.01 | 0.15 | 0.15 | 99 | 1006.2 |
| 20260506173907 | 50 | 49 | 0.0 | 4.0 | 0.01 | 0.15 | 0.15 | 99 | 1006.3 |
| 20260506173804 | 50 | 43 | 1.0 | 4.0 | 0.01 | 0.15 | 0.15 | 99 | 1006.4 |
| 20260506173705 | 50 | 38 | 0.0 | 4.0 | 0.01 | 0.15 | 0.15 | 99 | 1006.2 |
| 20260506173604 | 50 | 40 | 0.0 | 4.0 | 0.01 | 0.15 | 0.15 | 99 | 1006.3 |
| 20260506173505 | 50 | 39 | 1.0 | 4.0 | 0.01 | 0.15 | 0.15 | 99 | 1006.4 |
| 20260506173405 | 50 | 45 | 2.0 | 4.0 | 0.01 | 0.15 | 0.15 | 99 | 1006.2 |
| 20260506173304 | 50 | 33 | 2.0 | 4.0 | 0.01 | 0.15 | 0.15 | 99 | 1006.3 |
| 20260506173205 | 50 | 33 | 1.0 | 4.0 | 0.01 | 0.15 | 0.15 | 99 | 1006.2 |
| 20260506173105 | 50 | 25 | 1.0 | 4.0 | 0.01 | 0.15 | 0.15 | 99 | 1006.2 |
| 20260506173005 | 50 | 24 | 2.0 | 4.0 | 0.01 | 0.15 | 0.15 | 99 | 1006.1 |
| 20260506172904 | 50 | 14 | 0.0 | 4.0 | 0.01 | 0.15 | 0.15 | 99 | 1006.1 |
| 20260506172804 | 50 | 18 | 0.0 | 4.0 | 0.01 | 0.15 | 0.15 | 99 | 1006.2 |
| 20260506172705 | 50 | 19 | 0.0 | 4.0 | 0.01 | 0.15 | 0.15 | 99 | 1006.1 |
| 20260506172605 | 50 | 21 | 0.0 | 4.0 | 0.02 | 0.15 | 0.15 | 99 | 1006.2 |
| 20260506172405 | 50 | 21 | 0.0 | 4.0 | 0.04 | 0.15 | 0.15 | 99 | 1006.0 |
| 20260506172307 | 50 | 24 | 0.0 | 4.0 | 0.04 | 0.15 | 0.15 | 99 | 1006.0 |
| 20260506172207 | 50 | 33 | 1.0 | 4.0 | 0.05 | 0.15 | 0.15 | 99 | 1006.1 |
| 20260506172105 | 50 | 33 | 1.0 | 4.0 | 0.05 | 0.15 | 0.15 | 99 | 1006.1 |
| 20260506172004 | 50 | 26 | 1.0 | 4.0 | 0.06 | 0.15 | 0.15 | 99 | 1006.3 |
| 20260506171905 | 50 | 25 | 1.0 | 3.0 | 0.06 | 0.15 | 0.15 | 99 | 1006.2 |
| 20260506171805 | 50 | 20 | 0.0 | 3.0 | 0.07 | 0.15 | 0.15 | 99 | 1006.3 |
| 20260506171705 | 50 | 16 | 1.0 | 3.0 | 0.07 | 0.15 | 0.15 | 99 | 1006.2 |
| 20260506171605 | 50 | 15 | 2.0 | 3.0 | 0.07 | 0.15 | 0.15 | 99 | 1006.2 |
| 20260506171504 | 50 | 23 | 0.0 | 3.0 | 0.07 | 0.15 | 0.15 | 99 | 1006.1 |
| 20260506171405 | 50 | 28 | 0.0 | 3.0 | 0.07 | 0.15 | 0.15 | 99 | 1006.2 |
| 20260506171308 | 50 | 30 | 2.0 | 3.0 | 0.09 | 0.15 | 0.15 | 99 | 1006.1 |
| 20260506171205 | 50 | 24 | 0.0 | 3.0 | 0.09 | 0.15 | 0.15 | 99 | 1006.1 |
| 20260506171105 | 50 | 42 | 0.0 | 4.0 | 0.11 | 0.15 | 0.15 | 99 | 1006.0 |
| 20260506171004 | 51 | 56 | 1.0 | 4.0 | 0.11 | 0.15 | 0.15 | 99 | 1006.1 |
| 20260506170905 | 51 | 59 | 1.0 | 5.0 | 0.11 | 0.15 | 0.15 | 99 | 1006.2 |
| 20260506170805 | 51 | 55 | 1.0 | 5.0 | 0.11 | 0.15 | 0.15 | 99 | 1006.1 |
| 20260506170704 | 50 | 64 | 0.0 | 5.0 | 0.12 | 0.15 | 0.15 | 99 | 1006.1 |
| 20260506170505 | 50 | 59 | 0.0 | 5.0 | 0.12 | 0.15 | 0.15 | 99 | 1006.1 |
| 20260506170407 | 50 | 49 | 0.0 | 5.0 | 0.13 | 0.15 | 0.15 | 99 | 1006.1 |
| 20260506170305 | 50 | 48 | 0.0 | 5.0 | 0.13 | 0.15 | 0.15 | 99 | 1006.2 |
| 20260506170204 | 50 | 55 | 2.0 | 5.0 | 0.13 | 0.15 | 0.15 | 99 | 1006.2 |
| 20260506170005 | 50 | 34 | 2.0 | 5.0 | 0.13 | 0.15 | 0.15 | 99 | 1006.1 |
| 20260506165905 | 50 | 28 | 2.0 | 5.0 | 0.13 | 0.15 | 0.15 | 99 | 1006.0 |
| 20260506165805 | 50 | 24 | 1.0 | 5.0 | 0.14 | 0.15 | 0.15 | 99 | 1006.1 |
| 20260506165704 | 50 | 14 | 2.0 | 5.0 | 0.14 | 0.15 | 0.15 | 99 | 1006.2 |
| 20260506165605 | 50 | 11 | 1.0 | 6.0 | 0.14 | 0.15 | 0.15 | 99 | 1006.0 |
| 20260506165504 | 50 | 5 | 1.0 | 6.0 | 0.14 | 0.15 | 0.15 | 99 | 1006.1 |
| 20260506165306 | 50 | 8 | 1.0 | 6.0 | 0.13 | 0.14 | 0.14 | 99 | 1006.0 |
| 20260506165205 | 50 | 1 | 1.0 | 6.0 | 0.13 | 0.14 | 0.14 | 99 | 1006.1 |
| 20260506165105 | 50 | 1 | 2.0 | 6.0 | 0.13 | 0.14 | 0.14 | 99 | 1006.1 |
| 20260506165005 | 50 | 4 | 2.0 | 6.0 | 0.14 | 0.14 | 0.14 | 99 | 1006.1 |
| 20260506164905 | 50 | 5 | 2.0 | 6.0 | 0.14 | 0.14 | 0.14 | 99 | 1006.1 |
| 20260506164705 | 50 | 21 | 2.0 | 6.0 | 0.14 | 0.14 | 0.14 | 99 | 1006.2 |
| 20260506164604 | 50 | 28 | 2.0 | 4.0 | 0.14 | 0.14 | 0.14 | 99 | 1006.0 |
| 20260506164508 | 50 | 30 | 0.0 | 3.0 | 0.14 | 0.14 | 0.14 | 99 | 1006.0 |
| 20260506164405 | 50 | 36 | 0.0 | 3.0 | 0.14 | 0.14 | 0.14 | 99 | 1005.9 |
| 20260506164305 | 50 | 29 | 1.0 | 3.0 | 0.14 | 0.14 | 0.14 | 99 | 1006.1 |
| 20260506164205 | 51 | 28 | 1.0 | 3.0 | 0.14 | 0.14 | 0.14 | 99 | 1005.9 |
| 20260506163905 | 51 | 18 | 0.0 | 3.0 | 0.14 | 0.14 | 0.14 | 99 | 1005.9 |
| 20260506163805 | 51 | 36 | 0.0 | 3.0 | 0.14 | 0.14 | 0.14 | 99 | 1005.9 |
| 20260506163705 | 51 | 44 | 0.0 | 3.0 | 0.14 | 0.14 | 0.14 | 99 | 1006.0 |
| 20260506163404 | 51 | 93 | 0.0 | 2.0 | 0.14 | 0.14 | 0.14 | 99 | 1005.9 |
| 20260506163305 | 51 | 96 | 0.0 | 2.0 | 0.14 | 0.14 | 0.14 | 99 | 1006.0 |
| 20260506163205 | 51 | 100 | 0.0 | 2.0 | 0.14 | 0.14 | 0.14 | 99 | 1006.0 |
| 20260506163105 | 51 | 96 | 0.0 | 2.0 | 0.14 | 0.14 | 0.14 | 99 | 1005.9 |
| 20260506162904 | 51 | 102 | 1.0 | 2.0 | 0.14 | 0.14 | 0.14 | 99 | 1005.9 |
| 20260506162805 | 51 | 103 | 0.0 | 2.0 | 0.14 | 0.14 | 0.14 | 99 | 1005.9 |
| 20260506162704 | 51 | 89 | 0.0 | 3.0 | 0.13 | 0.13 | 0.13 | 99 | 1005.9 |
| 20260506162505 | 51 | 94 | 0.0 | 3.0 | 0.12 | 0.12 | 0.12 | 99 | 1005.9 |
| 20260506162404 | 51 | 84 | 1.0 | 3.0 | 0.12 | 0.12 | 0.12 | 99 | 1005.9 |
| 20260506162307 | 51 | 66 | 0.0 | 3.0 | 0.12 | 0.12 | 0.12 | 99 | 1005.8 |
| 20260506162205 | 51 | 50 | 1.0 | 3.0 | 0.11 | 0.11 | 0.11 | 99 | 1005.7 |
| 20260506162106 | 51 | 36 | 1.0 | 3.0 | 0.11 | 0.11 | 0.11 | 99 | 1005.8 |
| 20260506161905 | 51 | 29 | 1.0 | 3.0 | 0.09 | 0.09 | 0.09 | 99 | 1005.8 |
| 20260506161805 | 51 | 26 | 2.0 | 6.0 | 0.08 | 0.08 | 0.08 | 99 | 1005.9 |
| 20260506161705 | 51 | 25 | 1.0 | 6.0 | 0.08 | 0.08 | 0.08 | 99 | 1005.9 |
| 20260506161608 | 51 | 17 | 0.0 | 6.0 | 0.08 | 0.08 | 0.08 | 99 | 1005.9 |
| 20260506161506 | 51 | 30 | 0.0 | 8.0 | 0.08 | 0.08 | 0.08 | 99 | 1005.9 |
| 20260506161406 | 52 | 27 | 2.0 | 8.0 | 0.07 | 0.07 | 0.07 | 99 | 1006.1 |
| 20260506161305 | 52 | 36 | 2.0 | 8.0 | 0.06 | 0.06 | 0.06 | 99 | 1005.9 |
| 20260506161205 | 52 | 58 | 1.0 | 8.0 | 0.06 | 0.06 | 0.06 | 99 | 1005.9 |
| 20260506161105 | 52 | 58 | 1.0 | 10.0 | 0.05 | 0.05 | 0.05 | 99 | 1005.9 |
| 20260506161005 | 52 | 54 | 1.0 | 10.0 | 0.05 | 0.05 | 0.05 | 98 | 1005.9 |
| 20260506160905 | 52 | 56 | 2.0 | 10.0 | 0.05 | 0.05 | 0.05 | 98 | 1006.0 |
| 20260506160805 | 52 | 48 | 2.0 | 10.0 | 0.05 | 0.05 | 0.05 | 98 | 1006.0 |
| 20260506160705 | 53 | 58 | 2.0 | 10.0 | 0.04 | 0.04 | 0.04 | 97 | 1006.0 |
| 20260506160405 | 53 | 48 | 2.0 | 10.0 | 0.02 | 0.02 | 0.02 | 97 | 1006.0 |
| 20260506160304 | 53 | 42 | 2.0 | 10.0 | 0.02 | 0.02 | 0.02 | 96 | 1005.9 |
| 20260506160205 | 53 | 30 | 2.0 | 10.0 | 0.02 | 0.02 | 0.02 | 96 | 1005.9 |
| 20260506160105 | 54 | 19 | 1.0 | 6.0 | 0.02 | 0.02 | 0.02 | 96 | 1005.9 |
| 20260506160005 | 54 | 22 | 1.0 | 6.0 | 0.02 | 0.02 | 0.02 | 96 | 1006.0 |
| 20260506155905 | 54 | 35 | 1.0 | 8.0 | 0.02 | 0.02 | 0.02 | 95 | 1005.9 |
| 20260506155707 | 54 | 39 | 2.0 | 8.0 | 0.01 | 0.01 | 0.01 | 95 | 1005.8 |
| 20260506155605 | 54 | 38 | 2.0 | 8.0 | 0.01 | 0.01 | 0.01 | 94 | 1005.9 |
| 20260506155405 | 54 | 54 | 2.0 | 8.0 | 0.01 | 0.01 | 0.01 | 94 | 1005.8 |
| 20260506155306 | 55 | 65 | 0.0 | 8.0 | 0.01 | 0.01 | 0.01 | 93 | 1005.7 |
| 20260506155105 | 55 | 77 | 2.0 | 8.0 | 0.01 | 0.01 | 0.01 | 92 | 1005.7 |
| 20260506155005 | 55 | 84 | 2.0 | 8.0 | 0.00 | 0.00 | 0.00 | 91 | 1005.7 |
| 20260506154905 | 55 | 84 | 2.0 | 8.0 | 0.00 | 0.00 | 0.00 | 91 | 1005.6 |
| 20260506154805 | 55 | 94 | 2.0 | 7.0 | 0.00 | 0.00 | 0.00 | 90 | 1005.6 |
| 20260506154705 | 56 | 108 | 2.0 | 10.0 | 0.00 | 0.00 | 0.00 | 90 | 1005.5 |
| 20260506154505 | 56 | 119 | 2.0 | 11.0 | 0.00 | 0.00 | 0.00 | 89 | 1005.3 |
| 20260506154405 | 56 | 124 | 2.0 | 11.0 | 0.00 | 0.00 | 0.00 | 88 | 1005.4 |
| 20260506154305 | 56 | 127 | 2.0 | 11.0 | 0.00 | 0.00 | 0.00 | 88 | 1005.2 |
| 20260506154205 | 56 | 135 | 3.0 | 11.0 | 0.00 | 0.00 | 0.00 | 87 | 1005.0 |
| 20260506154008 | 56 | 139 | 2.0 | 11.0 | 0.00 | 0.00 | 0.00 | 86 | 1005.0 |
| 20260506153905 | 56 | 144 | 3.0 | 11.0 | 0.00 | 0.00 | 0.00 | 85 | 1005.0 |
| 20260506153804 | 57 | 144 | 7.0 | 13.0 | 0.00 | 0.00 | 0.00 | 83 | 1004.7 |
| 20260506153705 | 57 | 143 | 8.0 | 13.0 | 0.00 | 0.00 | 0.00 | 81 | 1004.8 |
| 20260506153605 | 57 | 144 | 7.0 | 13.0 | 0.00 | 0.00 | 0.00 | 81 | 1004.7 |
| 20260506153505 | 57 | 144 | 4.0 | 13.0 | 0.00 | 0.00 | 0.00 | 81 | 1004.6 |
| 20260506153404 | 57 | 144 | 5.0 | 13.0 | 0.00 | 0.00 | 0.00 | 80 | 1004.7 |
| 20260506153305 | 57 | 144 | 5.0 | 13.0 | 0.00 | 0.00 | 0.00 | 80 | 1004.8 |
| 20260506153205 | 57 | 139 | 3.0 | 13.0 | 0.00 | 0.00 | 0.00 | 81 | 1004.8 |
| 20260506153108 | 57 | 135 | 3.0 | 13.0 | 0.00 | 0.00 | 0.00 | 80 | 1004.7 |
| 20260506152905 | 57 | 135 | 4.0 | 13.0 | 0.00 | 0.00 | 0.00 | 80 | 1004.7 |
| 20260506152805 | 57 | 139 | 7.0 | 13.0 | 0.00 | 0.00 | 0.00 | 80 | 1004.7 |
| 20260506152705 | 57 | 139 | 7.0 | 12.0 | 0.00 | 0.00 | 0.00 | 80 | 1004.6 |
| 20260506152504 | 58 | 141 | 6.0 | 12.0 | 0.00 | 0.00 | 0.00 | 80 | 1004.7 |
| 20260506152405 | 58 | 138 | 4.0 | 12.0 | 0.00 | 0.00 | 0.00 | 79 | 1004.6 |
| 20260506152205 | 58 | 138 | 4.0 | 12.0 | 0.00 | 0.00 | 0.00 | 80 | 1004.4 |
| 20260506152105 | 58 | 138 | 6.0 | 13.0 | 0.00 | 0.00 | 0.00 | 79 | 1004.5 |
| 20260506152005 | 58 | 141 | 4.0 | 13.0 | 0.00 | 0.00 | 0.00 | 79 | 1004.6 |
| 20260506151805 | 58 | 137 | 7.0 | 13.0 | 0.00 | 0.00 | 0.00 | 79 | 1004.4 |
| 20260506151704 | 58 | 137 | 4.0 | 13.0 | 0.00 | 0.00 | 0.00 | 79 | 1004.3 |
| 20260506151605 | 59 | 137 | 4.0 | 13.0 | 0.00 | 0.00 | 0.00 | 79 | 1004.4 |
| 20260506151505 | 59 | 139 | 4.0 | 13.0 | 0.00 | 0.00 | 0.00 | 79 | 1004.6 |
| 20260506151404 | 59 | 140 | 7.0 | 13.0 | 0.00 | 0.00 | 0.00 | 78 | 1004.3 |
| 20260506151308 | 59 | 143 | 8.0 | 13.0 | 0.00 | 0.00 | 0.00 | 77 | 1004.3 |
| 20260506151205 | 60 | 144 | 8.0 | 13.0 | 0.00 | 0.00 | 0.00 | 77 | 1004.2 |
| 20260506151105 | 60 | 140 | 9.0 | 13.0 | 0.00 | 0.00 | 0.00 | 76 | 1004.4 |
| 20260506151004 | 60 | 135 | 5.0 | 11.0 | 0.00 | 0.00 | 0.00 | 77 | 1004.2 |
| 20260506150905 | 61 | 134 | 8.0 | 11.0 | 0.00 | 0.00 | 0.00 | 76 | 1004.3 |
| 20260506150805 | 61 | 130 | 6.0 | 11.0 | 0.00 | 0.00 | 0.00 | 76 | 1004.3 |
| 20260506150605 | 62 | 121 | 4.0 | 11.0 | 0.00 | 0.00 | 0.00 | 76 | 1004.5 |
| 20260506150507 | 62 | 111 | 3.0 | 11.0 | 0.00 | 0.00 | 0.00 | 76 | 1004.4 |
| 20260506150405 | 62 | 111 | 6.0 | 11.0 | 0.00 | 0.00 | 0.00 | 76 | 1004.4 |
| 20260506150305 | 62 | 98 | 4.0 | 9.0 | 0.00 | 0.00 | 0.00 | 77 | 1004.4 |
| 20260506150205 | 63 | 89 | 5.0 | 9.0 | 0.00 | 0.00 | 0.00 | 75 | 1004.5 |
| 20260506150105 | 63 | 84 | 3.0 | 7.0 | 0.00 | 0.00 | 0.00 | 75 | 1004.2 |
| 20260506150005 | 63 | 77 | 2.0 | 7.0 | 0.00 | 0.00 | 0.00 | 74 | 1004.3 |
| 20260506145905 | 64 | 72 | 3.0 | 7.0 | 0.00 | 0.00 | 0.00 | 74 | 1004.4 |
| 20260506145804 | 64 | 65 | 4.0 | 7.0 | 0.00 | 0.00 | 0.00 | 72 | 1004.3 |
| 20260506145705 | 64 | 59 | 2.0 | 4.0 | 0.00 | 0.00 | 0.00 | 71 | 1004.3 |
| 20260506145605 | 64 | 65 | 1.0 | 4.0 | 0.00 | 0.00 | 0.00 | 69 | 1004.5 |
| 20260506145507 | 64 | 64 | 0.0 | 4.0 | 0.00 | 0.00 | 0.00 | 69 | 1004.3 |
| 20260506145404 | 65 | 72 | 0.0 | 4.0 | 0.00 | 0.00 | 0.00 | 68 | 1004.3 |
| 20260506145306 | 65 | 76 | 1.0 | 4.0 | 0.00 | 0.00 | 0.00 | 68 | 1004.3 |
| 20260506145204 | 65 | 87 | 2.0 | 4.0 | 0.00 | 0.00 | 0.00 | 67 | 1004.4 |
| 20260506145005 | 65 | 88 | 1.0 | 4.0 | 0.00 | 0.00 | 0.00 | 71 | 1004.4 |
| 20260506144904 | 65 | 82 | 0.0 | 4.0 | 0.00 | 0.00 | 0.00 | 69 | 1004.3 |
| 20260506144805 | 65 | 80 | 0.0 | 4.0 | 0.00 | 0.00 | 0.00 | 69 | 1004.3 |
| 20260506144705 | 65 | 74 | 0.0 | 4.0 | 0.00 | 0.00 | 0.00 | 68 | 1004.3 |
| 20260506144608 | 65 | 61 | 0.0 | 4.0 | 0.00 | 0.00 | 0.00 | 67 | 1004.3 |
| 20260506144505 | 65 | 59 | 2.0 | 4.0 | 0.00 | 0.00 | 0.00 | 68 | 1004.3 |
| 20260506144404 | 65 | 50 | 1.0 | 3.0 | 0.00 | 0.00 | 0.00 | 68 | 1004.3 |
| 20260506144305 | 64 | 42 | 1.0 | 3.0 | 0.00 | 0.00 | 0.00 | 66 | 1004.3 |
| 20260506144205 | 64 | 24 | 0.0 | 3.0 | 0.00 | 0.00 | 0.00 | 66 | 1004.3 |
| 20260506144104 | 64 | 20 | 0.0 | 3.0 | 0.00 | 0.00 | 0.00 | 68 | 1004.2 |
| 20260506144004 | 64 | 17 | 0.0 | 3.0 | 0.00 | 0.00 | 0.00 | 68 | 1004.2 |
| 20260506143905 | 64 | 4 | 1.0 | 3.0 | 0.00 | 0.00 | 0.00 | 69 | 1004.2 |
| 20260506143804 | 63 | 1 | 0.0 | 3.0 | 0.00 | 0.00 | 0.00 | 70 | 1004.4 |
| 20260506143705 | 63 | 1 | 1.0 | 3.0 | 0.00 | 0.00 | 0.00 | 69 | 1004.3 |
| 20260506143608 | 63 | 1 | 0.0 | 2.0 | 0.00 | 0.00 | 0.00 | 69 | 1004.3 |
| 20260506143505 | 63 | 1 | 0.0 | 2.0 | 0.00 | 0.00 | 0.00 | 69 | 1004.2 |
| 20260506143405 | 63 | 1 | 0.0 | 2.0 | 0.00 | 0.00 | 0.00 | 68 | 1004.4 |
| 20260506143305 | 63 | 1 | 0.0 | 2.0 | 0.00 | 0.00 | 0.00 | 67 | 1004.3 |
| 20260506143204 | 62 | 1 | 0.0 | 2.0 | 0.00 | 0.00 | 0.00 | 68 | 1004.4 |
| 20260506143104 | 62 | 1 | 0.0 | 2.0 | 0.00 | 0.00 | 0.00 | 71 | 1004.2 |
| 20260506143005 | 62 | 1 | 0.0 | 2.0 | 0.00 | 0.00 | 0.00 | 69 | 1004.3 |
| 20260506142905 | 62 | 1 | 0.0 | 3.0 | 0.00 | 0.00 | 0.00 | 68 | 1004.4 |
| 20260506142505 | 62 | 327 | 0.0 | 4.0 | 0.00 | 0.00 | 0.00 | 70 | 1004.4 |
| 20260506142404 | 62 | 327 | 0.0 | 4.0 | 0.00 | 0.00 | 0.00 | 70 | 1004.3 |
| 20260506142205 | 62 | 316 | 0.0 | 4.0 | 0.00 | 0.00 | 0.00 | 69 | 1004.3 |
| 20260506142104 | 62 | 306 | 0.0 | 4.0 | 0.00 | 0.00 | 0.00 | 69 | 1004.3 |
| 20260506142004 | 62 | 296 | 0.0 | 4.0 | 0.00 | 0.00 | 0.00 | 69 | 1004.3 |
| 20260506141904 | 62 | 294 | 0.0 | 4.0 | 0.00 | 0.00 | 0.00 | 71 | 1004.3 |
| 20260506141805 | 62 | 304 | 2.0 | 4.0 | 0.00 | 0.00 | 0.00 | 71 | 1004.3 |
| 20260506141708 | 62 | 315 | 2.0 | 4.0 | 0.00 | 0.00 | 0.00 | 72 | 1004.4 |
| 20260506141604 | 62 | 321 | 0.0 | 4.0 | 0.00 | 0.00 | 0.00 | 71 | 1004.3 |
| 20260506141505 | 62 | 321 | 0.0 | 4.0 | 0.00 | 0.00 | 0.00 | 71 | 1004.2 |
| 20260506141304 | 62 | 329 | 0.0 | 4.0 | 0.00 | 0.00 | 0.00 | 72 | 1004.3 |
| 20260506141105 | 62 | 339 | 1.0 | 4.0 | 0.00 | 0.00 | 0.00 | 71 | 1004.2 |
| 20260506141004 | 63 | 351 | 1.0 | 3.0 | 0.00 | 0.00 | 0.00 | 70 | 1004.4 |
| 20260506140707 | 63 | 339 | 0.0 | 4.0 | 0.00 | 0.00 | 0.00 | 70 | 1004.4 |
| 20260506140505 | 63 | 335 | 2.0 | 4.0 | 0.00 | 0.00 | 0.00 | 70 | 1004.2 |
| 20260506140405 | 63 | 335 | 1.0 | 4.0 | 0.00 | 0.00 | 0.00 | 70 | 1004.3 |
| 20260506140304 | 63 | 337 | 1.0 | 4.0 | 0.00 | 0.00 | 0.00 | 71 | 1004.4 |
| 20260506140205 | 63 | 339 | 0.0 | 4.0 | 0.00 | 0.00 | 0.00 | 71 | 1004.4 |
| 20260506140105 | 63 | 346 | 0.0 | 4.0 | 0.00 | 0.00 | 0.00 | 72 | 1004.2 |
| 20260506140005 | 63 | 351 | 0.0 | 4.0 | 0.00 | 0.00 | 0.00 | 72 | 1004.2 |
| 20260506135804 | 63 | 24 | 2.0 | 4.0 | 0.00 | 0.00 | 0.00 | 71 | 1004.4 |
| 20260506135605 | 63 | 65 | 1.0 | 4.0 | 0.00 | 0.00 | 0.00 | 70 | 1004.4 |
| 20260506135504 | 63 | 75 | 0.0 | 3.0 | 0.00 | 0.00 | 0.00 | 71 | 1004.3 |
| 20260506135405 | 63 | 74 | 0.0 | 3.0 | 0.00 | 0.00 | 0.00 | 70 | 1004.5 |
| 20260506135205 | 63 | 82 | 1.0 | 3.0 | 0.00 | 0.00 | 0.00 | 70 | 1004.5 |
| 20260506135104 | 63 | 88 | 0.0 | 2.0 | 0.00 | 0.00 | 0.00 | 71 | 1004.4 |
| 20260506135005 | 63 | 90 | 0.0 | 2.0 | 0.00 | 0.00 | 0.00 | 72 | 1004.5 |
| 20260506134905 | 63 | 90 | 0.0 | 2.0 | 0.00 | 0.00 | 0.00 | 71 | 1004.4 |
| 20260506134704 | 63 | 90 | 0.0 | 2.0 | 0.00 | 0.00 | 0.00 | 72 | 1004.4 |
| 20260506134505 | 62 | 93 | 0.0 | 3.0 | 0.00 | 0.00 | 0.00 | 72 | 1004.4 |
| 20260506134405 | 62 | 118 | 0.0 | 3.0 | 0.00 | 0.00 | 0.00 | 71 | 1004.4 |
| 20260506134304 | 62 | 139 | 0.0 | 3.0 | 0.00 | 0.00 | 0.00 | 72 | 1004.5 |
| 20260506134105 | 62 | 149 | 0.0 | 3.0 | 0.00 | 0.00 | 0.00 | 72 | 1004.5 |
| 20260506133904 | 62 | 148 | 0.0 | 3.0 | 0.00 | 0.00 | 0.00 | 73 | 1004.5 |
| 20260506133807 | 62 | 148 | 0.0 | 3.0 | 0.00 | 0.00 | 0.00 | 73 | 1004.4 |
| 20260506133704 | 62 | 148 | 0.0 | 3.0 | 0.00 | 0.00 | 0.00 | 72 | 1004.6 |
| 20260506133404 | 62 | 168 | 2.0 | 3.0 | 0.00 | 0.00 | 0.00 | 72 | 1004.5 |
| 20260506133305 | 62 | 147 | 0.0 | 2.0 | 0.00 | 0.00 | 0.00 | 74 | 1004.4 |
| 20260506133205 | 62 | 142 | 0.0 | 2.0 | 0.00 | 0.00 | 0.00 | 73 | 1004.5 |
| 20260506133104 | 62 | 135 | 1.0 | 2.0 | 0.00 | 0.00 | 0.00 | 72 | 1004.4 |
| 20260506133005 | 62 | 135 | 0.0 | 2.0 | 0.00 | 0.00 | 0.00 | 73 | 1004.5 |
| 20260506132904 | 62 | 135 | 0.0 | 2.0 | 0.00 | 0.00 | 0.00 | 73 | 1004.5 |
| 20260506132704 | 62 | 135 | 0.0 | 4.0 | 0.00 | 0.00 | 0.00 | 73 | 1004.5 |
| 20260506132605 | 62 | 135 | 0.0 | 4.0 | 0.00 | 0.00 | 0.00 | 74 | 1004.4 |
| 20260506132404 | 62 | 141 | 0.0 | 4.0 | 0.00 | 0.00 | 0.00 | 74 | 1004.6 |
| 20260506132307 | 62 | 147 | 1.0 | 4.0 | 0.00 | 0.00 | 0.00 | 74 | 1004.5 |
| 20260506132104 | 62 | 155 | 0.0 | 4.0 | 0.00 | 0.00 | 0.00 | 74 | 1004.5 |
| 20260506132005 | 62 | 157 | 0.0 | 4.0 | 0.00 | 0.00 | 0.00 | 75 | 1004.5 |
| 20260506131804 | 63 | 163 | 1.0 | 4.0 | 0.00 | 0.00 | 0.00 | 74 | 1004.5 |
| 20260506131705 | 63 | 171 | 0.0 | 4.0 | 0.00 | 0.00 | 0.00 | 74 | 1004.5 |
| 20260506131605 | 63 | 174 | 1.0 | 4.0 | 0.00 | 0.00 | 0.00 | 73 | 1004.5 |
| 20260506131504 | 63 | 179 | 2.0 | 4.0 | 0.00 | 0.00 | 0.00 | 72 | 1004.5 |
| 20260506131405 | 63 | 181 | 1.0 | 4.0 | 0.00 | 0.00 | 0.00 | 72 | 1004.5 |
| 20260506131305 | 63 | 181 | 1.0 | 4.0 | 0.00 | 0.00 | 0.00 | 72 | 1004.6 |
| 20260506131204 | 63 | 181 | 1.0 | 4.0 | 0.00 | 0.00 | 0.00 | 72 | 1004.5 |
| 20260506131105 | 63 | 181 | 0.0 | 3.0 | 0.00 | 0.00 | 0.00 | 71 | 1004.4 |
| 20260506131004 | 63 | 191 | 0.0 | 4.0 | 0.00 | 0.00 | 0.00 | 70 | 1004.4 |
| 20260506130904 | 63 | 207 | 0.0 | 4.0 | 0.00 | 0.00 | 0.00 | 70 | 1004.4 |
| 20260506130705 | 63 | 238 | 2.0 | 4.0 | 0.00 | 0.00 | 0.00 | 71 | 1004.4 |
| 20260506130605 | 62 | 240 | 0.0 | 4.0 | 0.00 | 0.00 | 0.00 | 71 | 1004.5 |
| 20260506130505 | 62 | 243 | 0.0 | 4.0 | 0.00 | 0.00 | 0.00 | 71 | 1004.4 |
| 20260506130404 | 62 | 244 | 0.0 | 4.0 | 0.00 | 0.00 | 0.00 | 71 | 1004.5 |
| 20260506130305 | 62 | 241 | 0.0 | 4.0 | 0.00 | 0.00 | 0.00 | 71 | 1004.6 |
| 20260506130104 | 62 | 250 | 1.0 | 4.0 | 0.00 | 0.00 | 0.00 | 71 | 1004.3 |
| 20260506130005 | 62 | 251 | 2.0 | 4.0 | 0.00 | 0.00 | 0.00 | 71 | 1004.4 |
| 20260506125904 | 62 | 251 | 2.0 | 4.0 | 0.00 | 0.00 | 0.00 | 71 | 1004.4 |
| 20260506125808 | 62 | 251 | 2.0 | 4.0 | 0.00 | 0.00 | 0.00 | 71 | 1004.4 |
| 20260506125705 | 62 | 244 | 2.0 | 4.0 | 0.00 | 0.00 | 0.00 | 71 | 1004.3 |
| 20260506125605 | 62 | 247 | 2.0 | 4.0 | 0.00 | 0.00 | 0.00 | 70 | 1004.3 |
| 20260506125505 | 62 | 253 | 1.0 | 4.0 | 0.00 | 0.00 | 0.00 | 71 | 1004.4 |
| 20260506125405 | 62 | 254 | 1.0 | 4.0 | 0.00 | 0.00 | 0.00 | 73 | 1004.4 |
| 20260506125205 | 62 | 253 | 1.0 | 4.0 | 0.00 | 0.00 | 0.00 | 72 | 1004.3 |
| 20260506125105 | 62 | 252 | 2.0 | 4.0 | 0.00 | 0.00 | 0.00 | 71 | 1004.4 |
| 20260506125005 | 62 | 246 | 0.0 | 4.0 | 0.00 | 0.00 | 0.00 | 72 | 1004.5 |
| 20260506124905 | 62 | 231 | 1.0 | 4.0 | 0.00 | 0.00 | 0.00 | 71 | 1004.4 |
| 20260506124808 | 62 | 219 | 2.0 | 3.0 | 0.00 | 0.00 | 0.00 | 71 | 1004.5 |
| 20260506124705 | 62 | 214 | 1.0 | 3.0 | 0.00 | 0.01 | 0.00 | 72 | 1004.5 |
| 20260506124604 | 62 | 216 | 0.0 | 3.0 | 0.00 | 0.01 | 0.00 | 73 | 1004.5 |
| 20260506124505 | 62 | 213 | 0.0 | 3.0 | 0.00 | 0.01 | 0.00 | 73 | 1004.5 |
| 20260506124405 | 62 | 214 | 0.0 | 4.0 | 0.00 | 0.01 | 0.00 | 70 | 1004.4 |
| 20260506124205 | 62 | 215 | 2.0 | 4.0 | 0.00 | 0.01 | 0.00 | 70 | 1004.6 |
| 20260506124005 | 62 | 203 | 1.0 | 4.0 | 0.00 | 0.01 | 0.00 | 72 | 1004.5 |
| 20260506123905 | 62 | 205 | 0.0 | 4.0 | 0.00 | 0.01 | 0.00 | 71 | 1004.5 |
| 20260506123808 | 62 | 204 | 0.0 | 4.0 | 0.00 | 0.01 | 0.00 | 72 | 1004.5 |
| 20260506123704 | 62 | 204 | 0.0 | 4.0 | 0.00 | 0.01 | 0.00 | 73 | 1004.4 |
| 20260506123605 | 62 | 202 | 1.0 | 4.0 | 0.00 | 0.01 | 0.00 | 71 | 1004.5 |
| 20260506123504 | 62 | 209 | 1.0 | 4.0 | 0.00 | 0.01 | 0.00 | 71 | 1004.3 |
| 20260506123405 | 62 | 221 | 2.0 | 4.0 | 0.00 | 0.01 | 0.00 | 71 | 1004.4 |
| 20260506123305 | 62 | 232 | 1.0 | 4.0 | 0.00 | 0.01 | 0.00 | 70 | 1004.5 |
| 20260506123204 | 62 | 236 | 1.0 | 4.0 | 0.00 | 0.01 | 0.00 | 70 | 1004.5 |
| 20260506123005 | 61 | 230 | 1.0 | 4.0 | 0.00 | 0.01 | 0.00 | 72 | 1004.6 |
| 20260506122904 | 61 | 226 | 1.0 | 4.0 | 0.00 | 0.01 | 0.00 | 70 | 1004.4 |
| 20260506122805 | 61 | 223 | 0.0 | 4.0 | 0.00 | 0.01 | 0.00 | 71 | 1004.6 |
| 20260506122605 | 61 | 206 | 0.0 | 4.0 | 0.00 | 0.01 | 0.00 | 71 | 1004.5 |
| 20260506122504 | 61 | 195 | 0.0 | 4.0 | 0.00 | 0.01 | 0.00 | 70 | 1004.4 |
| 20260506122405 | 61 | 165 | 2.0 | 4.0 | 0.00 | 0.01 | 0.00 | 71 | 1004.5 |
| 20260506122306 | 61 | 151 | 2.0 | 4.0 | 0.00 | 0.01 | 0.00 | 70 | 1004.5 |
| 20260506122204 | 61 | 146 | 1.0 | 5.0 | 0.00 | 0.01 | 0.00 | 71 | 1004.5 |
| 20260506121907 | 61 | 150 | 1.0 | 5.0 | 0.00 | 0.01 | 0.00 | 72 | 1004.5 |
| 20260506121805 | 61 | 154 | 2.0 | 5.0 | 0.00 | 0.01 | 0.00 | 74 | 1004.6 |
| 20260506121704 | 61 | 158 | 1.0 | 5.0 | 0.00 | 0.01 | 0.00 | 73 | 1004.5 |
| 20260506121605 | 61 | 157 | 0.0 | 5.0 | 0.00 | 0.01 | 0.00 | 71 | 1004.6 |
| 20260506121505 | 61 | 156 | 1.0 | 5.0 | 0.00 | 0.01 | 0.00 | 70 | 1004.5 |
| 20260506121404 | 61 | 161 | 2.0 | 5.0 | 0.00 | 0.01 | 0.00 | 72 | 1004.5 |
| 20260506121305 | 61 | 166 | 3.0 | 5.0 | 0.00 | 0.01 | 0.00 | 72 | 1004.5 |
| 20260506121205 | 61 | 172 | 2.0 | 4.0 | 0.00 | 0.01 | 0.00 | 73 | 1004.5 |
| 20260506121104 | 61 | 171 | 1.0 | 4.0 | 0.00 | 0.01 | 0.00 | 72 | 1004.5 |
| 20260506121005 | 61 | 170 | 1.0 | 3.0 | 0.00 | 0.01 | 0.00 | 72 | 1004.5 |
| 20260506120908 | 61 | 170 | 1.0 | 3.0 | 0.00 | 0.01 | 0.00 | 72 | 1004.6 |
| 20260506120805 | 61 | 171 | 1.0 | 4.0 | 0.00 | 0.01 | 0.00 | 72 | 1004.6 |
| 20260506120705 | 61 | 170 | 1.0 | 4.0 | 0.00 | 0.01 | 0.00 | 72 | 1004.4 |
| 20260506120605 | 61 | 174 | 1.0 | 4.0 | 0.00 | 0.01 | 0.00 | 73 | 1004.5 |
| 20260506120505 | 61 | 185 | 1.0 | 4.0 | 0.00 | 0.01 | 0.00 | 73 | 1004.6 |
| 20260506120305 | 61 | 198 | 0.0 | 4.0 | 0.00 | 0.01 | 0.00 | 71 | 1004.7 |
| 20260506120005 | 61 | 225 | 0.0 | 4.0 | 0.00 | 0.01 | 0.00 | 73 | 1004.6 |
| 20260506115908 | 61 | 239 | 0.0 | 4.0 | 0.00 | 0.01 | 0.00 | 73 | 1004.5 |
| 20260506115804 | 62 | 279 | 0.0 | 3.0 | 0.00 | 0.01 | 0.00 | 74 | 1004.6 |
| 20260506115704 | 62 | 294 | 0.0 | 3.0 | 0.00 | 0.01 | 0.00 | 74 | 1004.6 |
| 20260506115605 | 62 | 298 | 1.0 | 3.0 | 0.00 | 0.01 | 0.00 | 74 | 1004.7 |
| 20260506115505 | 62 | 303 | 1.0 | 3.0 | 0.00 | 0.01 | 0.00 | 74 | 1004.6 |
| 20260506115307 | 62 | 301 | 2.0 | 3.0 | 0.00 | 0.01 | 0.00 | 74 | 1004.6 |
| 20260506115105 | 62 | 293 | 1.0 | 3.0 | 0.00 | 0.01 | 0.00 | 73 | 1004.7 |
| 20260506115008 | 62 | 289 | 1.0 | 3.0 | 0.00 | 0.01 | 0.00 | 70 | 1004.9 |
| 20260506114905 | 62 | 279 | 1.0 | 3.0 | 0.00 | 0.01 | 0.00 | 69 | 1004.7 |
| 20260506114804 | 62 | 263 | 2.0 | 3.0 | 0.00 | 0.01 | 0.00 | 68 | 1004.6 |
| 20260506114705 | 62 | 248 | 1.0 | 3.0 | 0.00 | 0.01 | 0.00 | 68 | 1004.7 |
| 20260506114605 | 62 | 240 | 1.0 | 3.0 | 0.00 | 0.01 | 0.00 | 69 | 1004.7 |
| 20260506114505 | 62 | 232 | 2.0 | 3.0 | 0.00 | 0.01 | 0.00 | 67 | 1004.6 |
| 20260506114405 | 62 | 225 | 0.0 | 4.0 | 0.00 | 0.01 | 0.00 | 67 | 1004.5 |
| 20260506114305 | 62 | 225 | 0.0 | 4.0 | 0.00 | 0.01 | 0.00 | 68 | 1004.5 |
| 20260506114204 | 62 | 225 | 0.0 | 4.0 | 0.00 | 0.01 | 0.00 | 72 | 1004.6 |
| 20260506114108 | 62 | 228 | 0.0 | 4.0 | 0.00 | 0.01 | 0.00 | 73 | 1004.5 |
| 20260506114005 | 62 | 232 | 0.0 | 4.0 | 0.00 | 0.01 | 0.00 | 72 | 1004.6 |
| 20260506113904 | 62 | 237 | 0.0 | 4.0 | 0.00 | 0.01 | 0.00 | 74 | 1004.6 |
| 20260506113805 | 62 | 237 | 1.0 | 4.0 | 0.00 | 0.01 | 0.00 | 72 | 1004.5 |
| 20260506113604 | 62 | 240 | 0.0 | 4.0 | 0.00 | 0.01 | 0.00 | 73 | 1004.7 |
| 20260506113208 | 62 | 251 | 2.0 | 4.0 | 0.00 | 0.01 | 0.00 | 72 | 1004.6 |
| 20260506113105 | 62 | 250 | 1.0 | 4.0 | 0.00 | 0.01 | 0.00 | 69 | 1004.5 |
| 20260506113005 | 62 | 247 | 2.0 | 4.0 | 0.00 | 0.01 | 0.00 | 66 | 1004.5 |
| 20260506112905 | 62 | 247 | 0.0 | 4.0 | 0.00 | 0.01 | 0.00 | 71 | 1004.6 |
| 20260506112705 | 61 | 256 | 1.0 | 4.0 | 0.00 | 0.01 | 0.00 | 70 | 1004.7 |
| 20260506112604 | 61 | 255 | 1.0 | 4.0 | 0.00 | 0.01 | 0.00 | 70 | 1004.6 |
| 20260506112505 | 61 | 253 | 2.0 | 4.0 | 0.00 | 0.01 | 0.00 | 73 | 1004.7 |
| 20260506112405 | 61 | 247 | 1.0 | 3.0 | 0.00 | 0.01 | 0.00 | 72 | 1004.7 |
| 20260506112205 | 60 | 246 | 1.0 | 3.0 | 0.00 | 0.01 | 0.00 | 72 | 1004.8 |
| 20260506112108 | 60 | 250 | 2.0 | 3.0 | 0.00 | 0.01 | 0.00 | 74 | 1004.7 |
| 20260506111905 | 60 | 247 | 1.0 | 3.0 | 0.00 | 0.01 | 0.00 | 71 | 1004.8 |
| 20260506111804 | 60 | 241 | 1.0 | 4.0 | 0.00 | 0.01 | 0.00 | 72 | 1004.7 |
| 20260506111705 | 60 | 240 | 1.0 | 4.0 | 0.00 | 0.01 | 0.00 | 74 | 1004.6 |
| 20260506111605 | 60 | 243 | 0.0 | 4.0 | 0.00 | 0.01 | 0.00 | 75 | 1004.7 |
| 20260506111505 | 60 | 246 | 0.0 | 4.0 | 0.00 | 0.01 | 0.00 | 75 | 1004.8 |
| 20260506111404 | 60 | 253 | 1.0 | 4.0 | 0.00 | 0.01 | 0.00 | 75 | 1004.8 |
| 20260506111305 | 60 | 257 | 2.0 | 4.0 | 0.00 | 0.01 | 0.00 | 74 | 1004.7 |
| 20260506111208 | 60 | 253 | 0.0 | 4.0 | 0.00 | 0.01 | 0.00 | 77 | 1004.7 |
| 20260506111104 | 60 | 246 | 0.0 | 4.0 | 0.00 | 0.01 | 0.00 | 76 | 1004.8 |
| 20260506111005 | 60 | 243 | 0.0 | 4.0 | 0.00 | 0.01 | 0.00 | 78 | 1004.9 |
| 20260506110704 | 60 | 247 | 0.0 | 4.0 | 0.00 | 0.01 | 0.00 | 75 | 1004.9 |
| 20260506110605 | 60 | 245 | 1.0 | 3.0 | 0.00 | 0.01 | 0.00 | 78 | 1004.8 |
| 20260506110308 | 60 | 228 | 1.0 | 2.0 | 0.00 | 0.01 | 0.00 | 78 | 1004.9 |
| 20260506110205 | 60 | 236 | 1.0 | 2.0 | 0.00 | 0.01 | 0.00 | 80 | 1004.9 |
| 20260506110104 | 60 | 263 | 0.0 | 2.0 | 0.00 | 0.01 | 0.00 | 79 | 1004.9 |
| 20260506110005 | 60 | 286 | 1.0 | 3.0 | 0.00 | 0.01 | 0.00 | 79 | 1005.0 |
| 20260506105904 | 60 | 300 | 0.0 | 3.0 | 0.00 | 0.01 | 0.00 | 78 | 1005.1 |
| 20260506105805 | 59 | 305 | 0.0 | 3.0 | 0.00 | 0.01 | 0.00 | 79 | 1005.0 |
| 20260506105504 | 60 | 330 | 0.0 | 3.0 | 0.00 | 0.01 | 0.00 | 78 | 1005.0 |
| 20260506105408 | 60 | 334 | 0.0 | 3.0 | 0.00 | 0.01 | 0.00 | 78 | 1005.1 |
| 20260506105305 | 60 | 338 | 0.0 | 3.0 | 0.00 | 0.01 | 0.00 | 77 | 1005.0 |
| 20260506105204 | 60 | 342 | 0.0 | 3.0 | 0.00 | 0.01 | 0.00 | 77 | 1005.1 |
| 20260506105105 | 60 | 343 | 0.0 | 3.0 | 0.00 | 0.01 | 0.00 | 76 | 1005.1 |
| 20260506105005 | 60 | 348 | 2.0 | 3.0 | 0.00 | 0.01 | 0.00 | 77 | 1005.2 |
| 20260506104905 | 60 | 354 | 2.0 | 3.0 | 0.00 | 0.01 | 0.00 | 78 | 1005.1 |
| 20260506104805 | 60 | 1 | 1.0 | 3.0 | 0.00 | 0.01 | 0.00 | 79 | 1005.2 |
| 20260506104705 | 60 | 1 | 1.0 | 3.0 | 0.00 | 0.01 | 0.00 | 79 | 1005.1 |
| 20260506104605 | 60 | 347 | 0.0 | 3.0 | 0.00 | 0.01 | 0.00 | 79 | 1005.2 |
| 20260506104504 | 60 | 338 | 0.0 | 3.0 | 0.00 | 0.01 | 0.00 | 78 | 1005.2 |
| 20260506104408 | 60 | 333 | 1.0 | 3.0 | 0.00 | 0.01 | 0.00 | 78 | 1005.2 |
| 20260506104305 | 60 | 322 | 2.0 | 3.0 | 0.00 | 0.01 | 0.00 | 76 | 1005.2 |
| 20260506104205 | 60 | 309 | 1.0 | 3.0 | 0.00 | 0.01 | 0.00 | 77 | 1005.3 |
| 20260506104105 | 60 | 307 | 0.0 | 4.0 | 0.00 | 0.01 | 0.00 | 79 | 1005.3 |
| 20260506103904 | 60 | 298 | 0.0 | 4.0 | 0.00 | 0.01 | 0.00 | 77 | 1005.3 |
| 20260506103805 | 60 | 291 | 0.0 | 4.0 | 0.00 | 0.01 | 0.00 | 78 | 1005.3 |
| 20260506103705 | 60 | 285 | 1.0 | 4.0 | 0.00 | 0.01 | 0.00 | 77 | 1005.2 |
| 20260506103508 | 60 | 300 | 0.0 | 4.0 | 0.00 | 0.01 | 0.00 | 77 | 1005.3 |
| 20260506103205 | 60 | 294 | 1.0 | 6.0 | 0.00 | 0.01 | 0.00 | 77 | 1005.4 |
| 20260506103105 | 60 | 287 | 2.0 | 6.0 | 0.00 | 0.01 | 0.00 | 77 | 1005.4 |
| 20260506102905 | 60 | 285 | 0.0 | 6.0 | 0.00 | 0.01 | 0.00 | 78 | 1005.5 |
| 20260506102805 | 60 | 288 | 0.0 | 6.0 | 0.00 | 0.01 | 0.00 | 77 | 1005.4 |
| 20260506102705 | 60 | 290 | 1.0 | 6.0 | 0.00 | 0.01 | 0.00 | 76 | 1005.4 |
| 20260506102608 | 60 | 284 | 1.0 | 6.0 | 0.00 | 0.01 | 0.00 | 76 | 1005.5 |
| 20260506102505 | 60 | 279 | 1.0 | 6.0 | 0.00 | 0.01 | 0.00 | 75 | 1005.4 |
| 20260506102306 | 60 | 277 | 1.0 | 6.0 | 0.00 | 0.01 | 0.00 | 77 | 1005.5 |
| 20260506102205 | 60 | 280 | 2.0 | 5.0 | 0.00 | 0.01 | 0.00 | 75 | 1005.5 |
| 20260506102104 | 60 | 282 | 2.0 | 5.0 | 0.00 | 0.01 | 0.00 | 74 | 1005.5 |
| 20260506102005 | 60 | 283 | 0.0 | 5.0 | 0.00 | 0.01 | 0.00 | 76 | 1005.5 |
| 20260506101904 | 60 | 283 | 1.0 | 5.0 | 0.00 | 0.01 | 0.00 | 76 | 1005.4 |
| 20260506101805 | 60 | 282 | 0.0 | 5.0 | 0.00 | 0.01 | 0.00 | 77 | 1005.4 |
| 20260506101608 | 60 | 284 | 3.0 | 5.0 | 0.00 | 0.01 | 0.00 | 75 | 1005.5 |
| 20260506101505 | 60 | 281 | 1.0 | 4.0 | 0.00 | 0.01 | 0.00 | 75 | 1005.5 |
| 20260506101405 | 60 | 273 | 0.0 | 4.0 | 0.00 | 0.01 | 0.00 | 76 | 1005.4 |
| 20260506101305 | 60 | 273 | 0.0 | 4.0 | 0.00 | 0.01 | 0.00 | 76 | 1005.5 |
| 20260506101205 | 60 | 270 | 0.0 | 4.0 | 0.00 | 0.01 | 0.00 | 75 | 1005.4 |
| 20260506101104 | 60 | 270 | 0.0 | 4.0 | 0.00 | 0.01 | 0.00 | 77 | 1005.5 |
| 20260506101005 | 60 | 270 | 0.0 | 4.0 | 0.00 | 0.01 | 0.00 | 77 | 1005.5 |
| 20260506100904 | 60 | 270 | 2.0 | 4.0 | 0.00 | 0.01 | 0.00 | 77 | 1005.5 |
| 20260506100804 | 60 | 270 | 0.0 | 4.0 | 0.00 | 0.01 | 0.00 | 77 | 1005.5 |
| 20260506100708 | 60 | 270 | 0.0 | 4.0 | 0.00 | 0.01 | 0.00 | 76 | 1005.5 |
| 20260506100605 | 60 | 270 | 1.0 | 4.0 | 0.00 | 0.01 | 0.00 | 76 | 1005.4 |
| 20260506100504 | 60 | 270 | 1.0 | 4.0 | 0.00 | 0.01 | 0.00 | 76 | 1005.4 |
| 20260506100405 | 60 | 270 | 2.0 | 4.0 | 0.00 | 0.01 | 0.00 | 76 | 1005.5 |
| 20260506100304 | 60 | 271 | 0.0 | 4.0 | 0.00 | 0.01 | 0.00 | 77 | 1005.4 |
| 20260506100105 | 60 | 280 | 2.0 | 4.0 | 0.00 | 0.01 | 0.00 | 77 | 1005.6 |
| 20260506100005 | 60 | 279 | 2.0 | 4.0 | 0.00 | 0.01 | 0.00 | 77 | 1005.5 |
| 20260506095805 | 60 | 279 | 2.0 | 4.0 | 0.00 | 0.01 | 0.00 | 77 | 1005.4 |
| 20260506095707 | 60 | 280 | 2.0 | 4.0 | 0.00 | 0.01 | 0.00 | 76 | 1005.6 |
| 20260506095605 | 60 | 279 | 0.0 | 4.0 | 0.00 | 0.01 | 0.00 | 77 | 1005.5 |
| 20260506095505 | 60 | 278 | 0.0 | 4.0 | 0.00 | 0.01 | 0.00 | 77 | 1005.4 |
| 20260506095404 | 60 | 277 | 0.0 | 4.0 | 0.00 | 0.01 | 0.00 | 77 | 1005.6 |
| 20260506095306 | 60 | 276 | 1.0 | 4.0 | 0.00 | 0.01 | 0.00 | 78 | 1005.5 |
| 20260506095205 | 60 | 268 | 1.0 | 4.0 | 0.00 | 0.01 | 0.00 | 78 | 1005.4 |
| 20260506095104 | 60 | 261 | 1.0 | 4.0 | 0.00 | 0.01 | 0.00 | 77 | 1005.5 |
| 20260506095005 | 60 | 260 | 2.0 | 4.0 | 0.00 | 0.01 | 0.00 | 78 | 1005.4 |
| 20260506094804 | 59 | 261 | 1.0 | 4.0 | 0.00 | 0.01 | 0.00 | 78 | 1005.5 |
| 20260506094504 | 60 | 261 | 2.0 | 4.0 | 0.00 | 0.01 | 0.00 | 77 | 1005.5 |
| 20260506094405 | 60 | 261 | 1.0 | 4.0 | 0.00 | 0.01 | 0.00 | 77 | 1005.4 |
| 20260506094205 | 60 | 258 | 0.0 | 7.0 | 0.00 | 0.01 | 0.00 | 75 | 1005.6 |
| 20260506094105 | 60 | 260 | 0.0 | 7.0 | 0.00 | 0.01 | 0.00 | 77 | 1005.5 |
| 20260506094004 | 60 | 260 | 2.0 | 7.0 | 0.00 | 0.01 | 0.00 | 77 | 1005.4 |
| 20260506093905 | 60 | 259 | 1.0 | 7.0 | 0.00 | 0.01 | 0.00 | 78 | 1005.4 |
| 20260506093805 | 60 | 257 | 2.0 | 7.0 | 0.00 | 0.01 | 0.00 | 78 | 1005.6 |
| 20260506093705 | 60 | 256 | 2.0 | 7.0 | 0.00 | 0.01 | 0.00 | 78 | 1005.4 |
| 20260506093605 | 60 | 255 | 2.0 | 7.0 | 0.00 | 0.01 | 0.00 | 77 | 1005.4 |
| 20260506093507 | 60 | 255 | 1.0 | 7.0 | 0.00 | 0.01 | 0.00 | 78 | 1005.5 |
| 20260506093305 | 60 | 253 | 4.0 | 7.0 | 0.00 | 0.01 | 0.00 | 77 | 1005.6 |
| 20260506093205 | 60 | 264 | 3.0 | 5.0 | 0.00 | 0.01 | 0.00 | 76 | 1005.4 |
| 20260506093104 | 60 | 270 | 1.0 | 3.0 | 0.00 | 0.01 | 0.00 | 76 | 1005.5 |
| 20260506093005 | 60 | 270 | 0.0 | 3.0 | 0.00 | 0.01 | 0.00 | 76 | 1005.4 |
| 20260506092904 | 60 | 270 | 0.0 | 4.0 | 0.00 | 0.01 | 0.00 | 78 | 1005.5 |
| 20260506092704 | 60 | 266 | 1.0 | 4.0 | 0.00 | 0.01 | 0.00 | 77 | 1005.5 |
| 20260506092608 | 60 | 266 | 2.0 | 4.0 | 0.00 | 0.01 | 0.00 | 78 | 1005.4 |
| 20260506092505 | 60 | 265 | 1.0 | 4.0 | 0.00 | 0.01 | 0.00 | 78 | 1005.5 |
| 20260506092306 | 60 | 265 | 0.0 | 4.0 | 0.00 | 0.01 | 0.00 | 77 | 1005.5 |
| 20260506092205 | 60 | 265 | 0.0 | 4.0 | 0.00 | 0.01 | 0.00 | 78 | 1005.5 |
| 20260506092104 | 59 | 264 | 0.0 | 4.0 | 0.00 | 0.01 | 0.00 | 77 | 1005.4 |
| 20260506092005 | 59 | 262 | 2.0 | 4.0 | 0.00 | 0.01 | 0.00 | 78 | 1005.5 |
| 20260506091905 | 59 | 253 | 2.0 | 4.0 | 0.00 | 0.01 | 0.00 | 78 | 1005.5 |
| 20260506091704 | 59 | 217 | 0.0 | 3.0 | 0.00 | 0.01 | 0.00 | 77 | 1005.5 |
| 20260506091608 | 59 | 200 | 0.0 | 3.0 | 0.00 | 0.01 | 0.00 | 77 | 1005.5 |
| 20260506091305 | 59 | 148 | 0.0 | 2.0 | 0.00 | 0.01 | 0.00 | 79 | 1005.3 |
| 20260506091205 | 58 | 149 | 0.0 | 2.0 | 0.00 | 0.01 | 0.00 | 80 | 1005.3 |
| 20260506091004 | 58 | 150 | 0.0 | 2.0 | 0.00 | 0.01 | 0.00 | 80 | 1005.3 |
| 20260506090905 | 58 | 152 | 0.0 | 2.0 | 0.00 | 0.01 | 0.00 | 80 | 1005.4 |
| 20260506090805 | 58 | 156 | 0.0 | 2.0 | 0.00 | 0.01 | 0.00 | 80 | 1005.3 |
| 20260506090704 | 58 | 160 | 0.0 | 2.0 | 0.00 | 0.01 | 0.00 | 82 | 1005.4 |
| 20260506090608 | 58 | 160 | 0.0 | 2.0 | 0.00 | 0.01 | 0.00 | 83 | 1005.3 |
| 20260506090505 | 58 | 148 | 1.0 | 2.0 | 0.00 | 0.01 | 0.00 | 82 | 1005.3 |
| 20260506090405 | 58 | 148 | 1.0 | 2.0 | 0.00 | 0.01 | 0.00 | 81 | 1005.4 |
| 20260506090304 | 58 | 144 | 0.0 | 2.0 | 0.00 | 0.01 | 0.00 | 80 | 1005.5 |
| 20260506090205 | 58 | 157 | 0.0 | 3.0 | 0.00 | 0.01 | 0.00 | 82 | 1005.5 |
| 20260506090105 | 58 | 163 | 0.0 | 3.0 | 0.00 | 0.01 | 0.00 | 83 | 1005.4 |
| 20260506085905 | 57 | 159 | 0.0 | 3.0 | 0.00 | 0.01 | 0.00 | 82 | 1005.3 |
| 20260506085805 | 57 | 154 | 0.0 | 3.0 | 0.00 | 0.01 | 0.00 | 82 | 1005.4 |
| 20260506085705 | 57 | 154 | 0.0 | 3.0 | 0.00 | 0.01 | 0.00 | 81 | 1005.5 |
| 20260506085604 | 57 | 158 | 0.0 | 3.0 | 0.00 | 0.01 | 0.00 | 82 | 1005.3 |
| 20260506085507 | 57 | 154 | 0.0 | 4.0 | 0.00 | 0.01 | 0.00 | 83 | 1005.4 |
| 20260506085405 | 57 | 153 | 1.0 | 4.0 | 0.00 | 0.01 | 0.00 | 83 | 1005.3 |
| 20260506085306 | 57 | 151 | 0.0 | 4.0 | 0.00 | 0.01 | 0.00 | 83 | 1005.5 |
| 20260506085204 | 57 | 147 | 2.0 | 4.0 | 0.00 | 0.01 | 0.00 | 83 | 1005.3 |
| 20260506085105 | 57 | 140 | 0.0 | 4.0 | 0.00 | 0.01 | 0.00 | 85 | 1005.2 |
| 20260506085004 | 57 | 136 | 0.0 | 4.0 | 0.00 | 0.01 | 0.00 | 85 | 1005.4 |
| 20260506084705 | 57 | 129 | 2.0 | 4.0 | 0.00 | 0.01 | 0.00 | 85 | 1005.2 |
| 20260506084607 | 57 | 118 | 2.0 | 4.0 | 0.00 | 0.01 | 0.00 | 85 | 1005.3 |
| 20260506084505 | 57 | 107 | 1.0 | 3.0 | 0.00 | 0.01 | 0.00 | 85 | 1005.2 |
| 20260506084405 | 57 | 84 | 1.0 | 3.0 | 0.00 | 0.01 | 0.00 | 85 | 1005.3 |
| 20260506084304 | 57 | 50 | 0.0 | 2.0 | 0.00 | 0.01 | 0.00 | 86 | 1005.3 |
| 20260506084205 | 57 | 42 | 0.0 | 2.0 | 0.00 | 0.01 | 0.00 | 85 | 1005.3 |
| 20260506084105 | 57 | 1 | 0.0 | 2.0 | 0.00 | 0.01 | 0.00 | 86 | 1005.5 |
| 20260506084005 | 57 | 333 | 0.0 | 2.0 | 0.00 | 0.01 | 0.00 | 86 | 1005.2 |
| 20260506083904 | 57 | 334 | 0.0 | 2.0 | 0.00 | 0.01 | 0.00 | 86 | 1005.3 |
| 20260506083805 | 57 | 333 | 0.0 | 2.0 | 0.00 | 0.01 | 0.00 | 86 | 1005.4 |
| 20260506083708 | 57 | 343 | 0.0 | 2.0 | 0.00 | 0.01 | 0.00 | 86 | 1005.3 |
| 20260506083605 | 57 | 348 | 0.0 | 2.0 | 0.00 | 0.01 | 0.00 | 86 | 1005.5 |
| 20260506083504 | 57 | 357 | 0.0 | 2.0 | 0.00 | 0.01 | 0.00 | 86 | 1005.3 |
| 20260506083406 | 57 | 1 | 0.0 | 2.0 | 0.00 | 0.01 | 0.00 | 87 | 1005.4 |
| 20260506083304 | 57 | 1 | 0.0 | 2.0 | 0.00 | 0.01 | 0.00 | 86 | 1005.4 |
| 20260506083205 | 57 | 1 | 0.0 | 2.0 | 0.00 | 0.01 | 0.00 | 85 | 1005.3 |
| 20260506083105 | 57 | 6 | 1.0 | 2.0 | 0.00 | 0.01 | 0.00 | 86 | 1005.4 |
| 20260506083005 | 57 | 18 | 1.0 | 2.0 | 0.00 | 0.01 | 0.00 | 85 | 1005.4 |
| 20260506082905 | 57 | 46 | 0.0 | 2.0 | 0.00 | 0.01 | 0.00 | 86 | 1005.3 |
| 20260506082808 | 57 | 46 | 0.0 | 2.0 | 0.00 | 0.01 | 0.00 | 85 | 1005.5 |
| 20260506082605 | 57 | 270 | 0.0 | 2.0 | 0.00 | 0.01 | 0.00 | 85 | 1005.5 |
| 20260506082504 | 57 | 270 | 0.0 | 2.0 | 0.00 | 0.01 | 0.00 | 86 | 1005.5 |
| 20260506082405 | 57 | 283 | 0.0 | 2.0 | 0.00 | 0.01 | 0.00 | 86 | 1005.5 |
| 20260506082305 | 56 | 293 | 0.0 | 2.0 | 0.00 | 0.01 | 0.00 | 87 | 1005.4 |
| 20260506082206 | 56 | 293 | 0.0 | 2.0 | 0.00 | 0.01 | 0.00 | 87 | 1005.3 |
| 20260506082105 | 56 | 293 | 0.0 | 2.0 | 0.00 | 0.01 | 0.00 | 88 | 1005.4 |
| 20260506081904 | 56 | 293 | 0.0 | 2.0 | 0.00 | 0.01 | 0.00 | 88 | 1005.4 |
| 20260506081805 | 56 | 302 | 0.0 | 2.0 | 0.00 | 0.01 | 0.00 | 89 | 1005.5 |
| 20260506081705 | 56 | 313 | 0.0 | 2.0 | 0.00 | 0.01 | 0.00 | 89 | 1005.4 |
| 20260506081605 | 56 | 318 | 0.0 | 2.0 | 0.00 | 0.01 | 0.00 | 89 | 1005.5 |
| 20260506081505 | 56 | 331 | 1.0 | 2.0 | 0.00 | 0.01 | 0.00 | 88 | 1005.6 |
| 20260506081404 | 56 | 349 | 1.0 | 2.0 | 0.00 | 0.01 | 0.00 | 88 | 1005.6 |
| 20260506081305 | 56 | 346 | 0.0 | 2.0 | 0.00 | 0.01 | 0.00 | 88 | 1005.5 |
| 20260506081205 | 56 | 343 | 0.0 | 2.0 | 0.00 | 0.01 | 0.00 | 88 | 1005.6 |
| 20260506081108 | 56 | 323 | 0.0 | 2.0 | 0.00 | 0.01 | 0.00 | 87 | 1005.5 |
| 20260506081006 | 56 | 322 | 0.0 | 2.0 | 0.00 | 0.01 | 0.00 | 87 | 1005.5 |
| 20260506080905 | 56 | 305 | 0.0 | 3.0 | 0.00 | 0.01 | 0.00 | 88 | 1005.5 |
| 20260506080805 | 55 | 287 | 1.0 | 4.0 | 0.00 | 0.01 | 0.00 | 88 | 1005.6 |
| 20260506080705 | 55 | 285 | 1.0 | 4.0 | 0.00 | 0.01 | 0.00 | 88 | 1005.5 |
| 20260506080604 | 55 | 281 | 0.0 | 4.0 | 0.00 | 0.01 | 0.00 | 90 | 1005.5 |
| 20260506080505 | 55 | 284 | 1.0 | 4.0 | 0.00 | 0.01 | 0.00 | 90 | 1005.5 |
| 20260506080405 | 55 | 282 | 0.0 | 4.0 | 0.00 | 0.01 | 0.00 | 90 | 1005.5 |
| 20260506080304 | 55 | 291 | 0.0 | 4.0 | 0.00 | 0.01 | 0.00 | 90 | 1005.6 |
| 20260506080208 | 55 | 291 | 0.0 | 4.0 | 0.00 | 0.01 | 0.00 | 90 | 1005.5 |
| 20260506080105 | 55 | 301 | 0.0 | 4.0 | 0.00 | 0.01 | 0.00 | 90 | 1005.6 |
| 20260506073505 | 54 | 352 | 1.0 | 4.0 | 0.00 | 0.01 | 0.00 | 92 | 1005.6 |
| 20260506073405 | 54 | 345 | 2.0 | 4.0 | 0.00 | 0.01 | 0.00 | 92 | 1005.8 |
| 20260506073307 | 54 | 338 | 1.0 | 4.0 | 0.00 | 0.01 | 0.00 | 92 | 1006.0 |
| 20260506073205 | 54 | 337 | 0.0 | 4.0 | 0.00 | 0.01 | 0.00 | 92 | 1005.8 |
| 20260506073105 | 54 | 340 | 0.0 | 4.0 | 0.00 | 0.01 | 0.00 | 92 | 1005.9 |
| 20260506073004 | 54 | 340 | 0.0 | 4.0 | 0.00 | 0.01 | 0.00 | 92 | 1005.8 |
| 20260506072905 | 54 | 340 | 2.0 | 4.0 | 0.00 | 0.01 | 0.00 | 92 | 1005.8 |
| 20260506072705 | 54 | 339 | 1.0 | 2.0 | 0.00 | 0.01 | 0.00 | 92 | 1005.9 |
| 20260506072605 | 54 | 338 | 0.0 | 2.0 | 0.00 | 0.01 | 0.00 | 92 | 1005.9 |
| 20260506072505 | 54 | 344 | 1.0 | 2.0 | 0.00 | 0.01 | 0.00 | 92 | 1005.8 |
| 20260506072405 | 54 | 346 | 1.0 | 2.0 | 0.00 | 0.01 | 0.00 | 92 | 1005.7 |
| 20260506072308 | 54 | 345 | 0.0 | 2.0 | 0.00 | 0.01 | 0.00 | 92 | 1005.9 |
| 20260506072205 | 54 | 352 | 0.0 | 4.0 | 0.00 | 0.01 | 0.00 | 92 | 1005.8 |
| 20260506072104 | 54 | 359 | 0.0 | 4.0 | 0.00 | 0.01 | 0.00 | 92 | 1005.8 |
| 20260506072005 | 54 | 10 | 1.0 | 4.0 | 0.00 | 0.01 | 0.00 | 92 | 1005.7 |
| 20260506071904 | 54 | 27 | 0.0 | 4.0 | 0.00 | 0.01 | 0.00 | 92 | 1005.8 |
| 20260506071804 | 54 | 32 | 0.0 | 4.0 | 0.00 | 0.01 | 0.00 | 91 | 1005.7 |
| 20260506071704 | 54 | 32 | 0.0 | 4.0 | 0.00 | 0.01 | 0.00 | 91 | 1005.8 |
| 20260506071605 | 54 | 33 | 0.0 | 4.0 | 0.00 | 0.01 | 0.00 | 90 | 1005.8 |
| 20260506071504 | 54 | 27 | 0.0 | 4.0 | 0.00 | 0.01 | 0.00 | 90 | 1005.8 |
| 20260506071405 | 54 | 28 | 0.0 | 4.0 | 0.00 | 0.01 | 0.00 | 90 | 1005.8 |
| 20260506071308 | 54 | 31 | 2.0 | 4.0 | 0.00 | 0.01 | 0.00 | 90 | 1005.7 |
| 20260506071204 | 54 | 31 | 0.0 | 4.0 | 0.00 | 0.01 | 0.00 | 90 | 1005.9 |
| 20260506071105 | 54 | 25 | 0.0 | 4.0 | 0.00 | 0.01 | 0.00 | 91 | 1005.7 |
| 20260506070905 | 54 | 18 | 1.0 | 4.0 | 0.00 | 0.01 | 0.00 | 91 | 1005.6 |
| 20260506070804 | 54 | 17 | 1.0 | 4.0 | 0.00 | 0.01 | 0.00 | 91 | 1005.6 |
| 20260506070705 | 54 | 17 | 0.0 | 4.0 | 0.00 | 0.01 | 0.00 | 91 | 1005.7 |
| 20260506070407 | 54 | 21 | 1.0 | 4.0 | 0.00 | 0.01 | 0.00 | 91 | 1005.6 |
| 20260506070305 | 54 | 14 | 0.0 | 4.0 | 0.00 | 0.01 | 0.00 | 91 | 1005.7 |
| 20260506070205 | 54 | 9 | 2.0 | 4.0 | 0.00 | 0.01 | 0.00 | 91 | 1005.6 |
| 20260506070104 | 54 | 5 | 1.0 | 4.0 | 0.00 | 0.01 | 0.00 | 91 | 1005.5 |
| 20260506062504 | 53 | 40 | 1.0 | 4.0 | 0.00 | 0.01 | 0.00 | 94 | 1005.5 |
| 20260506062405 | 53 | 39 | 0.0 | 4.0 | 0.00 | 0.01 | 0.00 | 94 | 1005.6 |
| 20260506062306 | 53 | 38 | 1.0 | 4.0 | 0.00 | 0.01 | 0.00 | 94 | 1005.5 |
| 20260506062205 | 52 | 39 | 0.0 | 4.0 | 0.00 | 0.01 | 0.00 | 95 | 1005.6 |
| 20260506061904 | 52 | 21 | 2.0 | 4.0 | 0.00 | 0.01 | 0.00 | 95 | 1005.5 |
| 20260506061708 | 52 | 10 | 0.0 | 4.0 | 0.00 | 0.01 | 0.00 | 96 | 1005.6 |
| 20260506061605 | 52 | 9 | 0.0 | 4.0 | 0.00 | 0.01 | 0.00 | 96 | 1005.6 |
| 20260506061505 | 52 | 5 | 0.0 | 4.0 | 0.00 | 0.01 | 0.00 | 96 | 1005.6 |
| 20260506061404 | 52 | 5 | 1.0 | 4.0 | 0.00 | 0.01 | 0.00 | 96 | 1005.5 |
| 20260506061305 | 52 | 5 | 1.0 | 4.0 | 0.00 | 0.01 | 0.00 | 96 | 1005.5 |
| 20260506061204 | 52 | 357 | 1.0 | 4.0 | 0.00 | 0.01 | 0.00 | 96 | 1005.5 |
| 20260506061104 | 51 | 352 | 2.0 | 4.0 | 0.00 | 0.01 | 0.00 | 96 | 1005.6 |
| 20260506060905 | 51 | 353 | 1.0 | 3.0 | 0.00 | 0.01 | 0.00 | 97 | 1005.5 |
| 20260506060804 | 51 | 352 | 2.0 | 3.0 | 0.00 | 0.01 | 0.00 | 97 | 1005.7 |
| 20260506060708 | 51 | 351 | 2.0 | 3.0 | 0.00 | 0.01 | 0.00 | 97 | 1005.6 |
| 20260506060505 | 51 | 350 | 1.0 | 3.0 | 0.00 | 0.01 | 0.00 | 98 | 1005.7 |
| 20260506060305 | 51 | 346 | 0.0 | 3.0 | 0.00 | 0.01 | 0.00 | 98 | 1005.7 |
| 20260506060205 | 50 | 358 | 2.0 | 3.0 | 0.00 | 0.01 | 0.00 | 98 | 1005.6 |
| 20260506060104 | 50 | 16 | 0.0 | 2.0 | 0.00 | 0.01 | 0.00 | 99 | 1005.7 |
| 20260506051305 | 46 | 0 | 0.0 | 0.0 | 0.00 | 0.01 | 0.00 | 99 | 1005.6 |
| 20260506051205 | 46 | 0 | 0.0 | 0.0 | 0.00 | 0.01 | 0.00 | 99 | 1005.7 |
| 20260506051108 | 46 | 0 | 0.0 | 0.0 | 0.00 | 0.01 | 0.00 | 99 | 1005.8 |
| 20260506051005 | 46 | 0 | 0.0 | 0.0 | 0.00 | 0.01 | 0.00 | 99 | 1005.7 |
| 20260506050904 | 45 | 0 | 0.0 | 0.0 | 0.00 | 0.01 | 0.00 | 99 | 1005.7 |
| 20260506050804 | 45 | 0 | 0.0 | 0.0 | 0.00 | 0.01 | 0.00 | 99 | 1005.7 |
| 20260506050605 | 45 | 0 | 0.0 | 0.0 | 0.00 | 0.01 | 0.00 | 99 | 1005.7 |
| 20260506050505 | 45 | 0 | 0.0 | 0.0 | 0.00 | 0.01 | 0.00 | 99 | 1005.8 |
| 20260506050404 | 45 | 0 | 0.0 | 0.0 | 0.00 | 0.01 | 0.00 | 99 | 1005.6 |
| 20260506050305 | 45 | 0 | 0.0 | 0.0 | 0.00 | 0.01 | 0.00 | 99 | 1005.6 |
| 20260506050207 | 45 | 0 | 0.0 | 0.0 | 0.00 | 0.01 | 0.00 | 99 | 1005.7 |
| 20260506050104 | 44 | 0 | 0.0 | 0.0 | 0.00 | 0.01 | 0.00 | 99 | 1005.6 |
| 20260506045105 | 44 | 0 | 0.0 | 0.0 | 0.00 | 0.01 | 0.00 | 99 | 1005.7 |
| 20260506045004 | 43 | 0 | 0.0 | 0.0 | 0.00 | 0.01 | 0.00 | 99 | 1005.8 |
| 20260506044705 | 43 | 90 | 0.0 | 1.0 | 0.00 | 0.01 | 0.00 | 99 | 1005.9 |
| 20260506044604 | 43 | 90 | 0.0 | 2.0 | 0.00 | 0.01 | 0.00 | 99 | 1005.8 |
| 20260506044505 | 43 | 90 | 0.0 | 2.0 | 0.00 | 0.01 | 0.00 | 99 | 1005.9 |
| 20260506044405 | 43 | 90 | 0.0 | 2.0 | 0.00 | 0.01 | 0.00 | 99 | 1005.8 |
| 20260506044304 | 43 | 90 | 0.0 | 2.0 | 0.00 | 0.01 | 0.00 | 99 | 1005.8 |
| 20260506044208 | 43 | 88 | 0.0 | 2.0 | 0.00 | 0.01 | 0.00 | 99 | 1006.0 |
| 20260506044004 | 43 | 88 | 0.0 | 2.0 | 0.00 | 0.01 | 0.00 | 99 | 1005.7 |
| 20260506043705 | 44 | 80 | 0.0 | 2.0 | 0.00 | 0.01 | 0.00 | 99 | 1005.9 |
| 20260506043605 | 44 | 77 | 1.0 | 2.0 | 0.00 | 0.01 | 0.00 | 99 | 1006.0 |
| 20260506043505 | 44 | 74 | 1.0 | 2.0 | 0.00 | 0.01 | 0.00 | 99 | 1005.9 |
| 20260506043404 | 44 | 65 | 1.0 | 2.0 | 0.00 | 0.01 | 0.00 | 99 | 1005.9 |
| 20260506043305 | 44 | 45 | 0.0 | 1.0 | 0.00 | 0.01 | 0.00 | 99 | 1005.8 |
| 20260506043204 | 44 | 45 | 0.0 | 1.0 | 0.00 | 0.01 | 0.00 | 99 | 1005.9 |
| 20260506043005 | 44 | 45 | 0.0 | 1.0 | 0.00 | 0.01 | 0.00 | 99 | 1005.9 |
| 20260506042905 | 44 | 45 | 0.0 | 1.0 | 0.00 | 0.01 | 0.00 | 99 | 1006.0 |
| 20260506042704 | 45 | 46 | 0.0 | 1.0 | 0.00 | 0.01 | 0.00 | 99 | 1006.2 |
| 20260506042605 | 45 | 0 | 0.0 | 0.0 | 0.00 | 0.01 | 0.00 | 99 | 1006.0 |
| 20260506042505 | 45 | 0 | 0.0 | 0.0 | 0.00 | 0.01 | 0.00 | 99 | 1006.0 |
| 20260506042408 | 45 | 0 | 0.0 | 0.0 | 0.00 | 0.01 | 0.00 | 99 | 1006.0 |
| 20260506042305 | 45 | 0 | 0.0 | 0.0 | 0.00 | 0.01 | 0.00 | 99 | 1006.1 |
| 20260506042204 | 45 | 0 | 0.0 | 0.0 | 0.00 | 0.01 | 0.00 | 99 | 1006.0 |
| 20260506042105 | 45 | 0 | 0.0 | 0.0 | 0.00 | 0.01 | 0.00 | 99 | 1006.2 |
| 20260506042005 | 45 | 0 | 0.0 | 0.0 | 0.00 | 0.01 | 0.00 | 99 | 1006.1 |
| 20260506041904 | 45 | 0 | 0.0 | 0.0 | 0.00 | 0.01 | 0.00 | 99 | 1006.0 |
| 20260506041705 | 45 | 0 | 0.0 | 0.0 | 0.00 | 0.01 | 0.00 | 99 | 1006.0 |
| 20260506041605 | 45 | 0 | 0.0 | 0.0 | 0.00 | 0.01 | 0.00 | 99 | 1006.0 |
| 20260506041507 | 45 | 0 | 0.0 | 0.0 | 0.00 | 0.01 | 0.00 | 99 | 1006.1 |
| 20260506041404 | 45 | 0 | 0.0 | 0.0 | 0.00 | 0.01 | 0.00 | 99 | 1006.0 |
| 20260506041305 | 45 | 0 | 0.0 | 0.0 | 0.00 | 0.01 | 0.00 | 99 | 1006.2 |
| 20260506041104 | 45 | 0 | 0.0 | 0.0 | 0.00 | 0.01 | 0.00 | 99 | 1006.1 |
| 20260506041005 | 45 | 0 | 0.0 | 0.0 | 0.00 | 0.01 | 0.00 | 99 | 1006.0 |
| 20260506040905 | 45 | 0 | 0.0 | 0.0 | 0.00 | 0.01 | 0.00 | 99 | 1006.0 |
| 20260506040804 | 45 | 0 | 0.0 | 0.0 | 0.00 | 0.01 | 0.00 | 99 | 1006.0 |
| 20260506040705 | 45 | 0 | 0.0 | 0.0 | 0.00 | 0.01 | 0.00 | 99 | 1006.1 |
| 20260506040605 | 45 | 0 | 0.0 | 0.0 | 0.00 | 0.01 | 0.00 | 99 | 1006.2 |
| 20260506040507 | 45 | 0 | 0.0 | 0.0 | 0.00 | 0.01 | 0.00 | 99 | 1006.1 |
| 20260506040405 | 45 | 0 | 0.0 | 0.0 | 0.00 | 0.01 | 0.00 | 99 | 1006.2 |
| 20260506040305 | 45 | 0 | 0.0 | 0.0 | 0.00 | 0.01 | 0.00 | 99 | 1006.0 |
| 20260506040205 | 45 | 0 | 0.0 | 0.0 | 0.00 | 0.01 | 0.00 | 99 | 1006.1 |
| 20260506040105 | 44 | 0 | 0.0 | 0.0 | 0.00 | 0.01 | 0.00 | 99 | 1006.1 |
| 20260506040005 | 44 | 0 | 0.0 | 0.0 | 0.00 | 0.01 | 0.00 | 99 | 1006.0 |
| 20260506035904 | 44 | 0 | 0.0 | 0.0 | 0.00 | 0.01 | 0.00 | 99 | 1006.1 |
| 20260506035805 | 44 | 0 | 0.0 | 0.0 | 0.00 | 0.01 | 0.00 | 99 | 1006.0 |
| 20260506035607 | 44 | 0 | 0.0 | 0.0 | 0.00 | 0.01 | 0.00 | 99 | 1006.1 |
| 20260506035505 | 44 | 0 | 0.0 | 0.0 | 0.00 | 0.01 | 0.00 | 99 | 1006.1 |
| 20260506035405 | 44 | 0 | 0.0 | 0.0 | 0.00 | 0.01 | 0.00 | 99 | 1006.0 |
| 20260506035306 | 44 | 0 | 0.0 | 0.0 | 0.00 | 0.01 | 0.00 | 99 | 1006.1 |
| 20260506035205 | 44 | 0 | 0.0 | 0.0 | 0.00 | 0.01 | 0.00 | 99 | 1006.1 |
| 20260506035004 | 44 | 0 | 0.0 | 0.0 | 0.00 | 0.01 | 0.00 | 99 | 1005.9 |
| 20260506034904 | 44 | 0 | 0.0 | 0.0 | 0.00 | 0.01 | 0.00 | 99 | 1006.2 |
| 20260506034805 | 44 | 0 | 0.0 | 0.0 | 0.00 | 0.01 | 0.00 | 99 | 1006.1 |
| 20260506034705 | 44 | 0 | 0.0 | 0.0 | 0.00 | 0.01 | 0.00 | 99 | 1006.2 |
| 20260506034607 | 44 | 0 | 0.0 | 0.0 | 0.00 | 0.01 | 0.00 | 99 | 1006.2 |
| 20260506034504 | 44 | 0 | 0.0 | 0.0 | 0.00 | 0.01 | 0.00 | 99 | 1006.2 |
| 20260506034405 | 44 | 45 | 0.0 | 1.0 | 0.00 | 0.01 | 0.00 | 99 | 1006.2 |
| 20260506034204 | 44 | 45 | 0.0 | 2.0 | 0.00 | 0.01 | 0.00 | 99 | 1006.2 |
| 20260506034005 | 44 | 45 | 0.0 | 2.0 | 0.00 | 0.01 | 0.00 | 99 | 1006.2 |
| 20260506033904 | 44 | 45 | 0.0 | 2.0 | 0.00 | 0.01 | 0.00 | 99 | 1006.3 |
| 20260506033805 | 44 | 45 | 0.0 | 2.0 | 0.00 | 0.01 | 0.00 | 99 | 1006.2 |
| 20260506033605 | 44 | 45 | 0.0 | 2.0 | 0.00 | 0.01 | 0.00 | 99 | 1006.3 |
| 20260506033505 | 44 | 45 | 0.0 | 2.0 | 0.00 | 0.01 | 0.00 | 99 | 1006.4 |
| 20260506033404 | 44 | 45 | 0.0 | 2.0 | 0.00 | 0.01 | 0.00 | 99 | 1006.3 |
| 20260506033104 | 44 | 0 | 0.0 | 0.0 | 0.00 | 0.01 | 0.00 | 99 | 1006.2 |
| 20260506033006 | 44 | 0 | 0.0 | 0.0 | 0.00 | 0.01 | 0.00 | 99 | 1006.3 |
| 20260506032905 | 44 | 0 | 0.0 | 0.0 | 0.00 | 0.01 | 0.00 | 99 | 1006.3 |
| 20260506032704 | 44 | 0 | 0.0 | 0.0 | 0.00 | 0.01 | 0.00 | 99 | 1006.2 |
| 20260506032605 | 44 | 0 | 0.0 | 0.0 | 0.00 | 0.01 | 0.00 | 99 | 1006.3 |
| 20260506032405 | 44 | 0 | 0.0 | 0.0 | 0.00 | 0.01 | 0.00 | 99 | 1006.5 |
| 20260506032306 | 44 | 0 | 0.0 | 0.0 | 0.00 | 0.01 | 0.00 | 99 | 1006.4 |
| 20260506032205 | 44 | 0 | 0.0 | 0.0 | 0.00 | 0.01 | 0.00 | 99 | 1006.4 |
| 20260506032105 | 44 | 0 | 0.0 | 0.0 | 0.00 | 0.01 | 0.00 | 99 | 1006.4 |
| 20260506032005 | 44 | 0 | 0.0 | 0.0 | 0.00 | 0.01 | 0.00 | 99 | 1006.4 |
| 20260506031904 | 44 | 0 | 0.0 | 0.0 | 0.00 | 0.01 | 0.00 | 99 | 1006.4 |
| 20260506031705 | 44 | 0 | 0.0 | 0.0 | 0.00 | 0.01 | 0.00 | 99 | 1006.4 |
| 20260506031604 | 44 | 0 | 0.0 | 0.0 | 0.00 | 0.01 | 0.00 | 99 | 1006.3 |
| 20260506031504 | 44 | 0 | 0.0 | 0.0 | 0.00 | 0.01 | 0.00 | 99 | 1006.4 |
| 20260506031405 | 44 | 0 | 0.0 | 0.0 | 0.00 | 0.01 | 0.00 | 99 | 1006.3 |
| 20260506031305 | 44 | 0 | 0.0 | 0.0 | 0.00 | 0.01 | 0.00 | 99 | 1006.4 |
| 20260506031205 | 44 | 0 | 0.0 | 0.0 | 0.00 | 0.01 | 0.00 | 99 | 1006.5 |
| 20260506030905 | 45 | 0 | 0.0 | 0.0 | 0.00 | 0.01 | 0.00 | 99 | 1006.3 |
| 20260506030805 | 45 | 0 | 0.0 | 0.0 | 0.00 | 0.01 | 0.00 | 99 | 1006.3 |
| 20260506030605 | 45 | 46 | 0.0 | 2.0 | 0.00 | 0.01 | 0.00 | 99 | 1006.4 |
| 20260506030304 | 45 | 46 | 0.0 | 2.0 | 0.00 | 0.01 | 0.00 | 99 | 1006.3 |
| 20260506030205 | 46 | 46 | 0.0 | 2.0 | 0.00 | 0.01 | 0.00 | 99 | 1006.3 |
| 20260506030105 | 46 | 46 | 0.0 | 2.0 | 0.00 | 0.01 | 0.00 | 99 | 1006.4 |
| 20260506030005 | 46 | 46 | 0.0 | 2.0 | 0.00 | 0.01 | 0.00 | 99 | 1006.3 |
| 20260506025904 | 46 | 46 | 0.0 | 2.0 | 0.00 | 0.01 | 0.00 | 99 | 1006.4 |
| 20260506025808 | 46 | 46 | 0.0 | 2.0 | 0.00 | 0.01 | 0.00 | 99 | 1006.5 |
| 20260506025705 | 46 | 0 | 0.0 | 0.0 | 0.00 | 0.01 | 0.00 | 99 | 1006.5 |
| 20260506025604 | 46 | 0 | 0.0 | 0.0 | 0.00 | 0.01 | 0.00 | 99 | 1006.3 |
| 20260506025505 | 46 | 0 | 0.0 | 0.0 | 0.00 | 0.01 | 0.00 | 99 | 1006.5 |
| 20260506025405 | 46 | 0 | 0.0 | 0.0 | 0.00 | 0.01 | 0.00 | 99 | 1006.5 |
| 20260506025005 | 46 | 0 | 0.0 | 0.0 | 0.00 | 0.01 | 0.00 | 99 | 1006.4 |
| 20260506024905 | 46 | 0 | 0.0 | 0.0 | 0.00 | 0.01 | 0.00 | 99 | 1006.5 |
| 20260506024807 | 46 | 0 | 0.0 | 0.0 | 0.00 | 0.01 | 0.00 | 99 | 1006.5 |
| 20260506024705 | 46 | 0 | 0.0 | 0.0 | 0.00 | 0.01 | 0.00 | 99 | 1006.4 |
| 20260506024504 | 46 | 1 | 0.0 | 2.0 | 0.00 | 0.01 | 0.00 | 99 | 1006.5 |
| 20260506024305 | 46 | 1 | 0.0 | 2.0 | 0.00 | 0.01 | 0.00 | 99 | 1006.6 |
| 20260506024205 | 46 | 1 | 0.0 | 2.0 | 0.00 | 0.01 | 0.00 | 99 | 1006.5 |
| 20260506024005 | 46 | 1 | 0.0 | 2.0 | 0.00 | 0.01 | 0.00 | 99 | 1006.5 |
| 20260506023908 | 46 | 1 | 0.0 | 2.0 | 0.00 | 0.01 | 0.00 | 99 | 1006.5 |
| 20260506023805 | 46 | 7 | 0.0 | 2.0 | 0.00 | 0.01 | 0.00 | 99 | 1006.5 |
| 20260506023705 | 46 | 14 | 0.0 | 2.0 | 0.00 | 0.01 | 0.00 | 99 | 1006.5 |
| 20260506023605 | 46 | 18 | 0.0 | 2.0 | 0.00 | 0.01 | 0.00 | 99 | 1006.5 |
| 20260506023505 | 46 | 33 | 0.0 | 2.0 | 0.00 | 0.01 | 0.00 | 99 | 1006.5 |
| 20260506023305 | 46 | 46 | 0.0 | 2.0 | 0.00 | 0.01 | 0.00 | 99 | 1006.6 |
| 20260506023008 | 47 | 46 | 0.0 | 2.0 | 0.00 | 0.01 | 0.00 | 99 | 1006.6 |
| 20260506022905 | 47 | 46 | 0.0 | 2.0 | 0.00 | 0.01 | 0.00 | 99 | 1006.6 |
| 20260506022704 | 47 | 0 | 0.0 | 0.0 | 0.00 | 0.01 | 0.00 | 99 | 1006.5 |
| 20260506022405 | 47 | 0 | 0.0 | 0.0 | 0.00 | 0.01 | 0.00 | 99 | 1006.5 |
| 20260506022306 | 47 | 0 | 0.0 | 0.0 | 0.00 | 0.01 | 0.00 | 99 | 1006.4 |
| 20260506022205 | 47 | 0 | 0.0 | 0.0 | 0.00 | 0.01 | 0.00 | 99 | 1006.4 |
| 20260506022008 | 47 | 0 | 0.0 | 0.0 | 0.00 | 0.01 | 0.00 | 99 | 1006.4 |
| 20260506021905 | 47 | 0 | 0.0 | 0.0 | 0.00 | 0.01 | 0.00 | 99 | 1006.4 |
| 20260506021805 | 47 | 0 | 0.0 | 0.0 | 0.00 | 0.01 | 0.00 | 99 | 1006.5 |
| 20260506021704 | 47 | 0 | 0.0 | 0.0 | 0.00 | 0.01 | 0.00 | 99 | 1006.5 |
| 20260506021605 | 47 | 0 | 0.0 | 0.0 | 0.00 | 0.01 | 0.00 | 99 | 1006.4 |
| 20260506021505 | 47 | 0 | 0.0 | 0.0 | 0.00 | 0.01 | 0.00 | 99 | 1006.4 |
| 20260506021305 | 46 | 0 | 0.0 | 0.0 | 0.00 | 0.01 | 0.00 | 99 | 1006.4 |
| 20260506021204 | 46 | 0 | 0.0 | 0.0 | 0.00 | 0.01 | 0.00 | 99 | 1006.4 |
| 20260506021005 | 46 | 0 | 0.0 | 0.0 | 0.00 | 0.01 | 0.00 | 99 | 1006.4 |
| 20260506020904 | 46 | 0 | 0.0 | 0.0 | 0.00 | 0.01 | 0.00 | 99 | 1006.4 |
| 20260506020805 | 46 | 0 | 0.0 | 0.0 | 0.00 | 0.01 | 0.00 | 99 | 1006.4 |
| 20260506020705 | 46 | 0 | 0.0 | 0.0 | 0.00 | 0.01 | 0.00 | 99 | 1006.4 |
| 20260506020605 | 46 | 0 | 0.0 | 0.0 | 0.00 | 0.01 | 0.00 | 99 | 1006.5 |
| 20260506020504 | 46 | 0 | 0.0 | 0.0 | 0.00 | 0.01 | 0.00 | 99 | 1006.4 |
| 20260506020204 | 46 | 83 | 0.0 | 2.0 | 0.00 | 0.01 | 0.00 | 99 | 1006.5 |
| 20260506015905 | 47 | 71 | 0.0 | 2.0 | 0.00 | 0.01 | 0.00 | 99 | 1006.5 |
| 20260506015805 | 47 | 71 | 0.0 | 2.0 | 0.00 | 0.01 | 0.00 | 99 | 1006.5 |
| 20260506015705 | 47 | 71 | 0.0 | 2.0 | 0.00 | 0.01 | 0.00 | 99 | 1006.5 |
| 20260506015605 | 47 | 64 | 0.0 | 2.0 | 0.00 | 0.01 | 0.00 | 99 | 1006.4 |
| 20260506015404 | 47 | 59 | 1.0 | 2.0 | 0.00 | 0.01 | 0.00 | 99 | 1006.5 |
| 20260506015306 | 47 | 33 | 1.0 | 2.0 | 0.00 | 0.01 | 0.00 | 99 | 1006.5 |
| 20260506015205 | 47 | 1 | 1.0 | 2.0 | 0.00 | 0.01 | 0.00 | 99 | 1006.5 |
| 20260506015104 | 47 | 1 | 0.0 | 2.0 | 0.00 | 0.01 | 0.00 | 99 | 1006.5 |
| 20260506015005 | 47 | 1 | 0.0 | 2.0 | 0.00 | 0.01 | 0.00 | 99 | 1006.6 |
| 20260506014904 | 47 | 1 | 0.0 | 2.0 | 0.00 | 0.01 | 0.00 | 99 | 1006.6 |
| 20260506014805 | 47 | 1 | 0.0 | 2.0 | 0.00 | 0.01 | 0.00 | 99 | 1006.6 |
| 20260506014705 | 47 | 1 | 0.0 | 2.0 | 0.00 | 0.01 | 0.00 | 99 | 1006.6 |
| 20260506014605 | 47 | 1 | 0.0 | 2.0 | 0.00 | 0.01 | 0.00 | 99 | 1006.7 |
| 20260506014504 | 47 | 1 | 0.0 | 2.0 | 0.00 | 0.01 | 0.00 | 99 | 1006.5 |
| 20260506014404 | 47 | 1 | 0.0 | 2.0 | 0.00 | 0.01 | 0.00 | 99 | 1006.7 |
| 20260506014308 | 47 | 1 | 0.0 | 2.0 | 0.00 | 0.01 | 0.00 | 99 | 1006.6 |
| 20260506014104 | 47 | 1 | 0.0 | 2.0 | 0.00 | 0.01 | 0.00 | 99 | 1006.8 |
| 20260506014005 | 47 | 0 | 0.0 | 0.0 | 0.00 | 0.01 | 0.00 | 99 | 1006.7 |
| 20260506013905 | 47 | 0 | 0.0 | 0.0 | 0.00 | 0.01 | 0.00 | 99 | 1006.7 |
| 20260506013804 | 47 | 0 | 0.0 | 0.0 | 0.00 | 0.01 | 0.00 | 99 | 1006.9 |
| 20260506013705 | 47 | 0 | 0.0 | 0.0 | 0.00 | 0.01 | 0.00 | 99 | 1006.8 |
| 20260506013407 | 47 | 0 | 0.0 | 0.0 | 0.00 | 0.01 | 0.00 | 99 | 1006.9 |
| 20260506013305 | 47 | 0 | 0.0 | 0.0 | 0.00 | 0.01 | 0.00 | 99 | 1006.9 |
| 20260506013105 | 47 | 0 | 0.0 | 0.0 | 0.00 | 0.01 | 0.00 | 99 | 1006.9 |
| 20260506012805 | 47 | 270 | 0.0 | 2.0 | 0.00 | 0.01 | 0.00 | 99 | 1006.9 |
| 20260506012705 | 47 | 284 | 0.0 | 2.0 | 0.00 | 0.01 | 0.00 | 99 | 1006.8 |
| 20260506012604 | 47 | 288 | 0.0 | 2.0 | 0.00 | 0.01 | 0.00 | 99 | 1007.0 |
| 20260506012508 | 47 | 291 | 0.0 | 2.0 | 0.00 | 0.01 | 0.00 | 99 | 1007.1 |
| 20260506012405 | 47 | 285 | 0.0 | 2.0 | 0.00 | 0.01 | 0.00 | 99 | 1006.9 |
| 20260506012307 | 47 | 285 | 0.0 | 2.0 | 0.00 | 0.01 | 0.00 | 99 | 1006.9 |
| 20260506012204 | 47 | 285 | 0.0 | 2.0 | 0.00 | 0.01 | 0.00 | 99 | 1007.1 |
| 20260506012105 | 47 | 285 | 0.0 | 2.0 | 0.00 | 0.01 | 0.00 | 99 | 1006.9 |
| 20260506012005 | 47 | 285 | 0.0 | 2.0 | 0.00 | 0.01 | 0.00 | 99 | 1006.9 |
| 20260506011905 | 47 | 288 | 0.0 | 2.0 | 0.00 | 0.01 | 0.00 | 99 | 1007.0 |
| 20260506011805 | 47 | 293 | 0.0 | 2.0 | 0.00 | 0.01 | 0.00 | 99 | 1006.8 |
| 20260506011607 | 47 | 321 | 0.0 | 2.0 | 0.00 | 0.01 | 0.00 | 99 | 1006.9 |
| 20260506011505 | 47 | 337 | 0.0 | 2.0 | 0.00 | 0.01 | 0.00 | 99 | 1006.8 |
| 20260506011405 | 47 | 357 | 0.0 | 2.0 | 0.00 | 0.01 | 0.00 | 99 | 1007.0 |
| 20260506011304 | 47 | 353 | 0.0 | 2.0 | 0.00 | 0.01 | 0.00 | 99 | 1006.9 |
| 20260506011205 | 47 | 352 | 0.0 | 2.0 | 0.00 | 0.01 | 0.00 | 99 | 1007.0 |
| 20260506011105 | 47 | 353 | 0.0 | 2.0 | 0.00 | 0.01 | 0.00 | 99 | 1006.9 |
| 20260506011004 | 47 | 354 | 0.0 | 2.0 | 0.00 | 0.01 | 0.00 | 99 | 1006.9 |
| 20260506010905 | 46 | 354 | 0.0 | 2.0 | 0.00 | 0.01 | 0.00 | 99 | 1006.9 |
| 20260506010805 | 46 | 354 | 0.0 | 2.0 | 0.00 | 0.01 | 0.00 | 99 | 1006.9 |
| 20260506010705 | 46 | 354 | 0.0 | 2.0 | 0.00 | 0.01 | 0.00 | 99 | 1006.9 |
| 20260506010604 | 46 | 353 | 0.0 | 2.0 | 0.00 | 0.01 | 0.00 | 99 | 1006.8 |
| 20260506010508 | 46 | 352 | 0.0 | 2.0 | 0.00 | 0.01 | 0.00 | 99 | 1006.8 |
| 20260506010405 | 46 | 350 | 1.0 | 2.0 | 0.00 | 0.01 | 0.00 | 99 | 1006.9 |
| 20260506010305 | 46 | 353 | 1.0 | 2.0 | 0.00 | 0.01 | 0.00 | 99 | 1006.8 |
| 20260506010205 | 46 | 1 | 0.0 | 2.0 | 0.00 | 0.01 | 0.00 | 99 | 1006.8 |
| 20260506010104 | 46 | 1 | 0.0 | 2.0 | 0.00 | 0.01 | 0.00 | 99 | 1006.7 |
| 20260506010005 | 46 | 1 | 0.0 | 1.0 | 0.00 | 0.01 | 0.00 | 99 | 1006.6 |
| 20260506005905 | 46 | 0 | 0.0 | 0.0 | 0.00 | 0.01 | 0.00 | 99 | 1006.8 |
| 20260506005705 | 46 | 0 | 0.0 | 0.0 | 0.00 | 0.01 | 0.00 | 99 | 1006.7 |
| 20260506005608 | 46 | 0 | 0.0 | 0.0 | 0.00 | 0.01 | 0.00 | 99 | 1006.7 |
| 20260506005405 | 46 | 0 | 0.0 | 0.0 | 0.00 | 0.01 | 0.00 | 99 | 1006.7 |
| 20260506005306 | 46 | 0 | 0.0 | 0.0 | 0.00 | 0.01 | 0.00 | 99 | 1006.8 |
| 20260506005205 | 46 | 0 | 0.0 | 0.0 | 0.00 | 0.01 | 0.00 | 99 | 1006.6 |
| 20260506004905 | 47 | 0 | 0.0 | 0.0 | 0.00 | 0.01 | 0.00 | 99 | 1006.6 |
| 20260506004805 | 47 | 0 | 0.0 | 0.0 | 0.00 | 0.01 | 0.00 | 99 | 1006.7 |
| 20260506004705 | 47 | 0 | 0.0 | 0.0 | 0.00 | 0.01 | 0.00 | 99 | 1006.7 |
| 20260506004608 | 47 | 0 | 0.0 | 0.0 | 0.00 | 0.01 | 0.00 | 99 | 1006.7 |
| 20260506004505 | 47 | 1 | 0.0 | 2.0 | 0.00 | 0.01 | 0.00 | 99 | 1006.7 |
| 20260506004405 | 47 | 1 | 0.0 | 2.0 | 0.00 | 0.01 | 0.00 | 99 | 1006.7 |
| 20260506004305 | 47 | 14 | 0.0 | 2.0 | 0.00 | 0.01 | 0.00 | 99 | 1006.5 |
| 20260506004105 | 47 | 14 | 0.0 | 2.0 | 0.00 | 0.01 | 0.00 | 99 | 1006.6 |
| 20260506004005 | 47 | 14 | 0.0 | 2.0 | 0.00 | 0.01 | 0.00 | 99 | 1006.7 |
| 20260506003904 | 47 | 14 | 0.0 | 2.0 | 0.00 | 0.01 | 0.00 | 99 | 1006.6 |
| 20260506003805 | 47 | 14 | 0.0 | 2.0 | 0.00 | 0.01 | 0.00 | 99 | 1006.7 |
| 20260506003705 | 47 | 16 | 0.0 | 2.0 | 0.00 | 0.01 | 0.00 | 99 | 1006.7 |
| 20260506003608 | 47 | 17 | 0.0 | 2.0 | 0.00 | 0.01 | 0.00 | 99 | 1006.7 |
| 20260506003505 | 47 | 20 | 1.0 | 2.0 | 0.00 | 0.01 | 0.00 | 99 | 1006.7 |
| 20260506003405 | 47 | 39 | 1.0 | 2.0 | 0.00 | 0.01 | 0.00 | 99 | 1006.7 |
| 20260506003305 | 47 | 45 | 0.0 | 1.0 | 0.00 | 0.01 | 0.00 | 99 | 1006.8 |
| 20260506003205 | 47 | 45 | 0.0 | 1.0 | 0.00 | 0.01 | 0.00 | 99 | 1006.8 |
| 20260506003105 | 47 | 45 | 0.0 | 1.0 | 0.00 | 0.01 | 0.00 | 99 | 1006.8 |
| 20260506002905 | 47 | 45 | 0.0 | 1.0 | 0.00 | 0.01 | 0.00 | 99 | 1006.9 |
| 20260506002805 | 47 | 45 | 0.0 | 1.0 | 0.00 | 0.01 | 0.00 | 99 | 1007.0 |
| 20260506002708 | 47 | 5 | 0.0 | 2.0 | 0.00 | 0.01 | 0.00 | 99 | 1006.8 |
| 20260506002604 | 47 | 1 | 0.0 | 2.0 | 0.00 | 0.01 | 0.00 | 99 | 1006.9 |
| 20260506002505 | 47 | 6 | 0.0 | 2.0 | 0.00 | 0.01 | 0.00 | 99 | 1006.8 |
| 20260506002405 | 47 | 18 | 0.0 | 2.0 | 0.00 | 0.01 | 0.00 | 99 | 1006.9 |
| 20260506002306 | 47 | 14 | 0.0 | 2.0 | 0.00 | 0.01 | 0.00 | 99 | 1006.9 |
| 20260506002204 | 48 | 12 | 0.0 | 2.0 | 0.00 | 0.01 | 0.00 | 99 | 1006.9 |
| 20260506002104 | 48 | 10 | 0.0 | 2.0 | 0.00 | 0.01 | 0.00 | 99 | 1007.0 |
| 20260506002005 | 48 | 9 | 0.0 | 2.0 | 0.00 | 0.01 | 0.00 | 99 | 1006.9 |
| 20260506001904 | 48 | 8 | 0.0 | 2.0 | 0.00 | 0.01 | 0.00 | 99 | 1007.1 |
| 20260506001804 | 48 | 9 | 0.0 | 2.0 | 0.00 | 0.01 | 0.00 | 99 | 1006.9 |
| 20260506001708 | 48 | 10 | 0.0 | 2.0 | 0.00 | 0.01 | 0.00 | 99 | 1007.1 |
| 20260506001605 | 48 | 12 | 0.0 | 2.0 | 0.00 | 0.01 | 0.00 | 99 | 1007.0 |
| 20260506001504 | 48 | 11 | 0.0 | 2.0 | 0.00 | 0.01 | 0.00 | 99 | 1007.0 |
| 20260506001205 | 48 | 5 | 1.0 | 2.0 | 0.00 | 0.01 | 0.00 | 99 | 1007.2 |
| 20260506001005 | 48 | 12 | 0.0 | 2.0 | 0.00 | 0.01 | 0.00 | 99 | 1007.1 |
| 20260506000905 | 48 | 45 | 0.0 | 1.0 | 0.00 | 0.01 | 0.00 | 99 | 1007.1 |
| 20260506000804 | 48 | 0 | 0.0 | 0.0 | 0.00 | 0.01 | 0.00 | 99 | 1007.1 |
| 20260506000705 | 48 | 0 | 0.0 | 0.0 | 0.00 | 0.01 | 0.00 | 99 | 1007.2 |
| 20260506000605 | 48 | 0 | 0.0 | 0.0 | 0.00 | 0.01 | 0.00 | 99 | 1007.1 |
| 20260506000505 | 48 | 0 | 0.0 | 0.0 | 0.00 | 0.01 | 0.00 | 99 | 1007.0 |
| 20260506000405 | 48 | 0 | 0.0 | 0.0 | 0.00 | 0.01 | 0.00 | 99 | 1007.0 |
| 20260506000304 | 48 | 0 | 0.0 | 0.0 | 0.00 | 0.01 | 0.00 | 99 | 1007.1 |
| 20260506000205 | 48 | 0 | 0.0 | 0.0 | 0.00 | 0.01 | 0.00 | 99 | 1007.1 |
| 20260506000105 | 48 | 0 | 0.0 | 0.0 | 0.00 | 0.01 | 0.00 | 99 | 1007.0 |
| 20260506000005 | 48 | 0 | 0.0 | 0.0 | 0.00 | 0.01 | 0.00 | 99 | 1007.1 |
| 20260505235905 | 48 | 0 | 0.0 | 0.0 | 0.00 | 0.01 | 0.00 | 99 | 1007.1 |
| 20260505235808 | 48 | 0 | 0.0 | 0.0 | 0.00 | 0.01 | 0.00 | 99 | 1007.1 |
| 20260505235704 | 48 | 0 | 0.0 | 0.0 | 0.00 | 0.01 | 0.00 | 99 | 1007.0 |
| 20260505235604 | 48 | 0 | 0.0 | 0.0 | 0.00 | 0.01 | 0.00 | 99 | 1007.1 |
| 20260505235505 | 48 | 0 | 0.0 | 0.0 | 0.00 | 0.01 | 0.00 | 99 | 1007.2 |
| 20260505235405 | 48 | 0 | 0.0 | 0.0 | 0.00 | 0.01 | 0.00 | 99 | 1007.1 |
| 20260505235305 | 48 | 0 | 0.0 | 0.0 | 0.00 | 0.01 | 0.00 | 99 | 1007.1 |
| 20260505235204 | 48 | 0 | 0.0 | 0.0 | 0.00 | 0.01 | 0.00 | 99 | 1007.2 |
| 20260505235105 | 48 | 0 | 0.0 | 0.0 | 0.00 | 0.01 | 0.00 | 99 | 1007.2 |
| 20260505234907 | 49 | 0 | 0.0 | 0.0 | 0.00 | 0.01 | 0.00 | 99 | 1007.1 |
| 20260505234705 | 49 | 0 | 0.0 | 0.0 | 0.00 | 0.01 | 0.00 | 99 | 1007.2 |
| 20260505234605 | 48 | 0 | 0.0 | 0.0 | 0.00 | 0.01 | 0.00 | 99 | 1007.1 |
| 20260505234505 | 48 | 0 | 0.0 | 0.0 | 0.00 | 0.01 | 0.00 | 99 | 1007.3 |
| 20260505234405 | 48 | 90 | 0.0 | 2.0 | 0.00 | 0.01 | 0.00 | 99 | 1007.3 |
| 20260505234305 | 48 | 67 | 0.0 | 2.0 | 0.00 | 0.01 | 0.00 | 99 | 1007.2 |
| 20260505234105 | 48 | 45 | 0.0 | 2.0 | 0.00 | 0.01 | 0.00 | 99 | 1007.3 |
| 20260505234005 | 48 | 40 | 0.0 | 2.0 | 0.00 | 0.01 | 0.00 | 99 | 1007.3 |
| 20260505233907 | 48 | 40 | 0.0 | 2.0 | 0.00 | 0.01 | 0.00 | 99 | 1007.4 |
| 20260505233805 | 48 | 40 | 0.0 | 2.0 | 0.00 | 0.01 | 0.00 | 99 | 1007.5 |
| 20260505233605 | 48 | 40 | 0.0 | 2.0 | 0.00 | 0.01 | 0.00 | 99 | 1007.3 |
| 20260505233504 | 48 | 42 | 0.0 | 2.0 | 0.00 | 0.01 | 0.00 | 99 | 1007.4 |
| 20260505233405 | 48 | 34 | 0.0 | 2.0 | 0.00 | 0.01 | 0.00 | 99 | 1007.4 |
| 20260505233305 | 48 | 70 | 0.0 | 2.0 | 0.00 | 0.01 | 0.00 | 99 | 1007.4 |
| 20260505233204 | 48 | 60 | 0.0 | 2.0 | 0.00 | 0.01 | 0.00 | 99 | 1007.4 |
| 20260505233005 | 48 | 74 | 0.0 | 2.0 | 0.00 | 0.01 | 0.00 | 99 | 1007.5 |
| 20260505232908 | 48 | 79 | 0.0 | 2.0 | 0.00 | 0.01 | 0.00 | 99 | 1007.5 |
| 20260505232704 | 48 | 80 | 0.0 | 2.0 | 0.00 | 0.01 | 0.00 | 99 | 1007.3 |
| 20260505232505 | 49 | 80 | 0.0 | 2.0 | 0.00 | 0.01 | 0.00 | 99 | 1007.4 |
| 20260505232405 | 49 | 77 | 0.0 | 2.0 | 0.00 | 0.01 | 0.00 | 99 | 1007.4 |
| 20260505232305 | 49 | 65 | 0.0 | 2.0 | 0.00 | 0.01 | 0.00 | 99 | 1007.5 |
| 20260505232205 | 49 | 75 | 0.0 | 2.0 | 0.00 | 0.01 | 0.00 | 99 | 1007.4 |
| 20260505232105 | 49 | 75 | 0.0 | 2.0 | 0.00 | 0.01 | 0.00 | 99 | 1007.4 |
| 20260505232008 | 49 | 90 | 0.0 | 2.0 | 0.00 | 0.01 | 0.00 | 99 | 1007.4 |
| 20260505231805 | 48 | 0 | 0.0 | 0.0 | 0.00 | 0.01 | 0.00 | 99 | 1007.5 |
| 20260505231704 | 48 | 0 | 0.0 | 0.0 | 0.00 | 0.01 | 0.00 | 99 | 1007.5 |
| 20260505231605 | 48 | 90 | 0.0 | 1.0 | 0.00 | 0.01 | 0.00 | 99 | 1007.5 |
| 20260505231505 | 48 | 90 | 0.0 | 1.0 | 0.00 | 0.01 | 0.00 | 99 | 1007.5 |
| 20260505231405 | 48 | 90 | 0.0 | 1.0 | 0.00 | 0.01 | 0.00 | 99 | 1007.5 |
| 20260505231305 | 49 | 90 | 0.0 | 1.0 | 0.00 | 0.01 | 0.00 | 99 | 1007.5 |
| 20260505231205 | 49 | 90 | 0.0 | 1.0 | 0.00 | 0.01 | 0.00 | 99 | 1007.5 |
| 20260505231108 | 49 | 90 | 0.0 | 1.0 | 0.00 | 0.01 | 0.00 | 99 | 1007.5 |
| 20260505231006 | 49 | 90 | 0.0 | 1.0 | 0.00 | 0.01 | 0.00 | 99 | 1007.5 |
| 20260505230904 | 49 | 90 | 0.0 | 1.0 | 0.00 | 0.01 | 0.00 | 99 | 1007.5 |
| 20260505230805 | 49 | 90 | 0.0 | 1.0 | 0.00 | 0.01 | 0.00 | 99 | 1007.5 |
| 20260505230704 | 49 | 90 | 0.0 | 1.0 | 0.00 | 0.01 | 0.00 | 99 | 1007.6 |
| 20260505230505 | 49 | 0 | 0.0 | 0.0 | 0.00 | 0.01 | 0.00 | 99 | 1007.5 |
| 20260505230404 | 49 | 0 | 0.0 | 0.0 | 0.00 | 0.01 | 0.00 | 99 | 1007.7 |
| 20260505230304 | 49 | 0 | 0.0 | 0.0 | 0.00 | 0.01 | 0.00 | 99 | 1007.5 |